FW0860 Weather Reports


Display with metric or nautical units.
time (UTC)temp
F
wind
direction
speed
MPH
gust
MPH
rain 1hr
in
rain 24hr
in
rain mn
in
humidity
%
barometer
mb
20260903003629 102 281 3.0 8.0 0.00 0.00 0.00 28 1009.6
20260903003532 102 286 2.0 8.0 0.00 0.00 0.00 28 1009.6
20260903003433 102 266 2.0 8.0 0.00 0.00 0.00 28 1009.7
20260903003341 102 266 3.0 8.0 0.00 0.00 0.00 29 1009.6
20260903003221 102 245 4.0 8.0 0.00 0.00 0.00 29 1009.7
20260903003149 102 246 4.0 8.0 0.00 0.00 0.00 29 1009.6
20260903003015 102 248 4.0 8.0 0.00 0.00 0.00 28 1009.6
20260903002917 102 248 4.0 8.0 0.00 0.00 0.00 29 1009.6
20260903002847 102 248 3.0 8.0 0.00 0.00 0.00 29 1009.6
20260903002728 102 246 2.0 8.0 0.00 0.00 0.00 29 1009.6
20260903002638 102 251 2.0 8.0 0.00 0.00 0.00 29 1009.6
20260903002520 102 252 3.0 8.0 0.00 0.00 0.00 29 1009.7
20260903002426 102 252 4.0 8.0 0.00 0.00 0.00 29 1009.7
20260903002334 102 252 4.0 8.0 0.00 0.00 0.00 28 1009.7
20260903002233 102 259 3.0 7.0 0.00 0.00 0.00 29 1009.6
20260903002141 103 258 2.0 7.0 0.00 0.00 0.00 29 1009.6
20260903002021 102 258 3.0 8.0 0.00 0.00 0.00 29 1009.6
20260903001930 102 258 2.0 8.0 0.00 0.00 0.00 29 1009.6
20260903001851 102 258 2.0 8.0 0.00 0.00 0.00 30 1009.7
20260903001738 102 258 2.0 8.0 0.00 0.00 0.00 29 1009.7
20260903001624 102 258 1.0 8.0 0.00 0.00 0.00 30 1009.7
20260903001526 102 257 1.0 8.0 0.00 0.00 0.00 30 1009.6
20260903001428 102 257 4.0 8.0 0.00 0.00 0.00 29 1009.8
20260903001337 102 258 3.0 9.0 0.00 0.00 0.00 29 1009.8
20260903001220 102 261 3.0 9.0 0.00 0.00 0.00 29 1009.7
20260903001121 102 261 3.0 9.0 0.00 0.00 0.00 29 1009.7
20260903001033 103 261 3.0 9.0 0.00 0.00 0.00 29 1009.7
20260903000935 102 261 3.0 9.0 0.00 0.00 0.00 29 1009.8
20260903000817 102 252 3.0 9.0 0.00 0.00 0.00 29 1009.7
20260903000632 102 248 4.0 9.0 0.00 0.00 0.00 29 1009.7
20260903000532 103 248 3.0 9.0 0.00 0.00 0.00 29 1009.8
20260903000417 103 245 3.0 8.0 0.00 0.00 0.00 29 1009.7
20260903000321 103 243 2.0 8.0 0.00 0.00 0.00 29 1009.6
20260903000221 103 243 1.0 8.0 0.00 0.00 0.00 29 1009.8
20260903000131 102 242 2.0 8.0 0.00 0.00 0.00 29 1009.8
20260903000043 102 242 4.0 8.0 0.00 0.00 0.00 29 1009.8
20260902235918 103 247 3.0 9.0 0.00 0.00 0.00 29 1009.8
20260902235821 102 250 2.0 9.0 0.00 0.00 0.00 29 1009.8
20260902235726 102 248 2.0 9.0 0.00 0.00 0.00 29 1009.8
20260902235636 102 248 3.0 9.0 0.00 0.00 0.00 29 1009.8
20260902235537 102 248 4.0 9.0 0.00 0.00 0.00 29 1009.8
20260902235418 102 248 3.0 9.0 0.00 0.00 0.00 29 1009.8
20260902235328 103 248 4.0 9.0 0.00 0.00 0.00 29 1009.8
20260902235228 103 247 4.0 9.0 0.00 0.00 0.00 29 1009.9
20260902235115 103 245 5.0 9.0 0.00 0.00 0.00 29 1009.8
20260902235016 103 238 5.0 9.0 0.00 0.00 0.00 29 1009.8
20260902234926 103 231 5.0 9.0 0.00 0.00 0.00 29 1009.9
20260902234826 103 229 4.0 9.0 0.00 0.00 0.00 29 1009.9
20260902234729 102 231 3.0 9.0 0.00 0.00 0.00 29 1009.9
20260902234639 102 228 4.0 9.0 0.00 0.00 0.00 29 1009.9
20260902234523 103 229 5.0 9.0 0.00 0.00 0.00 29 1009.9
20260902234425 103 228 4.0 9.0 0.00 0.00 0.00 29 1010.0
20260902234355 103 217 4.0 8.0 0.00 0.00 0.00 29 1010.0
20260902234233 103 215 3.0 8.0 0.00 0.00 0.00 29 1010.0
20260902234141 102 215 3.0 8.0 0.00 0.00 0.00 29 1010.0
20260902234042 102 215 3.0 8.0 0.00 0.00 0.00 29 1010.0
20260902233921 102 215 3.0 8.0 0.00 0.00 0.00 29 1009.9
20260902233855 103 215 4.0 8.0 0.00 0.00 0.00 29 1009.9
20260902233742 103 212 4.0 8.0 0.00 0.00 0.00 29 1009.9
20260902233642 103 216 3.0 8.0 0.00 0.00 0.00 29 1009.9
20260902233522 102 215 3.0 8.0 0.00 0.00 0.00 29 1010.0
20260902233433 102 248 2.0 6.0 0.00 0.00 0.00 29 1010.0
20260902233333 102 255 3.0 6.0 0.00 0.00 0.00 29 1010.0
20260902233233 102 255 2.0 7.0 0.00 0.00 0.00 29 1010.1
20260902233146 102 255 2.0 9.0 0.00 0.00 0.00 29 1010.1
20260902233054 102 255 3.0 10.0 0.00 0.00 0.00 29 1010.1
20260902232932 102 255 3.0 10.0 0.00 0.00 0.00 29 1010.1
20260902232833 102 255 3.0 10.0 0.00 0.00 0.00 29 1010.0
20260902232741 102 260 2.0 10.0 0.00 0.00 0.00 29 1010.0
20260902232624 102 260 2.0 10.0 0.00 0.00 0.00 29 1010.1
20260902232526 103 260 3.0 10.0 0.00 0.00 0.00 29 1010.1
20260902232433 103 260 5.0 10.0 0.00 0.00 0.00 29 1010.1
20260902232341 103 260 6.0 10.0 0.00 0.00 0.00 29 1010.1
20260902232223 103 260 5.0 10.0 0.00 0.00 0.00 28 1010.2
20260902232124 103 255 3.0 6.0 0.00 0.00 0.00 28 1010.2
20260902232026 103 262 2.0 6.0 0.00 0.00 0.00 29 1010.2
20260902231936 103 262 3.0 7.0 0.00 0.00 0.00 28 1010.2
20260902231822 103 262 3.0 7.0 0.00 0.00 0.00 28 1010.3
20260902231723 104 262 2.0 7.0 0.00 0.00 0.00 28 1010.3
20260902231654 104 263 2.0 7.0 0.00 0.00 0.00 29 1010.3
20260902231532 103 263 3.0 8.0 0.00 0.00 0.00 29 1010.3
20260902231500 103 262 4.0 8.0 0.00 0.00 0.00 29 1010.3
20260902231318 104 262 3.0 8.0 0.00 0.00 0.00 28 1010.4
20260902231228 104 262 4.0 8.0 0.00 0.00 0.00 28 1010.4
20260902231132 103 262 4.0 8.0 0.00 0.00 0.00 28 1010.4
20260902231040 103 261 3.0 8.0 0.00 0.00 0.00 29 1010.4
20260902230921 103 261 2.0 10.0 0.00 0.00 0.00 28 1010.3
20260902230823 103 261 3.0 10.0 0.00 0.00 0.00 29 1010.4
20260902230725 103 261 4.0 10.0 0.00 0.00 0.00 29 1010.4
20260902230634 103 258 2.0 10.0 0.00 0.00 0.00 29 1010.4
20260902230519 103 258 3.0 10.0 0.00 0.00 0.00 29 1010.5
20260902230441 103 257 4.0 10.0 0.00 0.00 0.00 29 1010.5
20260902230331 103 262 4.0 10.0 0.00 0.00 0.00 29 1010.5
20260902230232 103 269 4.0 10.0 0.00 0.00 0.00 29 1010.4
20260902230133 103 240 5.0 10.0 0.00 0.00 0.00 29 1010.4
20260902230033 103 243 5.0 10.0 0.00 0.00 0.00 29 1010.4
20260902225928 103 255 4.0 9.0 0.00 0.00 0.00 29 1010.5
20260902225829 103 256 4.0 9.0 0.00 0.00 0.00 28 1010.5
20260902225739 103 256 5.0 9.0 0.00 0.00 0.00 28 1010.5
20260902225621 103 247 4.0 14.0 0.00 0.00 0.00 29 1010.5
20260902225523 102 247 5.0 14.0 0.00 0.00 0.00 29 1010.5
20260902225422 102 247 4.0 14.0 0.00 0.00 0.00 29 1010.5
20260902225337 103 247 4.0 14.0 0.00 0.00 0.00 29 1010.5
20260902225239 103 243 3.0 14.0 0.00 0.00 0.00 29 1010.6
20260902225208 103 243 5.0 14.0 0.00 0.00 0.00 29 1010.6
20260902225029 103 271 6.0 14.0 0.00 0.00 0.00 29 1010.6
20260902224938 103 260 7.0 14.0 0.00 0.00 0.00 29 1010.6
20260902224818 103 235 6.0 14.0 0.00 0.00 0.00 29 1010.7
20260902224720 103 224 5.0 10.0 0.00 0.00 0.00 29 1010.6
20260902224635 103 219 5.0 10.0 0.00 0.00 0.00 29 1010.6
20260902224535 103 214 4.0 10.0 0.00 0.00 0.00 29 1010.6
20260902224442 103 219 5.0 10.0 0.00 0.00 0.00 29 1010.7
20260902224324 104 278 5.0 10.0 0.00 0.00 0.00 29 1010.6
20260902224226 103 270 5.0 10.0 0.00 0.00 0.00 29 1010.7
20260902224126 103 287 5.0 10.0 0.00 0.00 0.00 29 1010.7
20260902224037 103 274 4.0 10.0 0.00 0.00 0.00 30 1010.7
20260902223943 103 232 3.0 10.0 0.00 0.00 0.00 30 1010.7
20260902223849 103 231 3.0 10.0 0.00 0.00 0.00 30 1010.7
20260902223729 103 233 4.0 10.0 0.00 0.00 0.00 30 1010.8
20260902223632 103 265 4.0 10.0 0.00 0.00 0.00 30 1010.8
20260902223540 102 292 5.0 10.0 0.00 0.00 0.00 30 1010.7
20260902223423 102 288 3.0 10.0 0.00 0.00 0.00 30 1010.9
20260902223323 102 232 1.0 11.0 0.00 0.00 0.00 30 1010.7
20260902223257 102 232 1.0 11.0 0.00 0.00 0.00 29 1010.7
20260902223142 102 232 2.0 11.0 0.00 0.00 0.00 29 1010.8
20260902223022 102 232 1.0 11.0 0.00 0.00 0.00 29 1010.9
20260902222924 102 232 3.0 11.0 0.00 0.00 0.00 29 1011.0
20260902222833 102 233 4.0 11.0 0.00 0.00 0.00 29 1011.0
20260902222734 103 219 4.0 11.0 0.00 0.00 0.00 29 1011.0
20260902222643 103 218 5.0 11.0 0.00 0.00 0.00 30 1011.1
20260902222526 103 215 5.0 11.0 0.00 0.00 0.00 29 1010.9
20260902222457 103 271 4.0 11.0 0.00 0.00 0.00 29 1010.9
20260902222316 103 276 4.0 11.0 0.00 0.00 0.00 29 1011.0
20260902222216 103 271 5.0 11.0 0.00 0.00 0.00 29 1011.0
20260902222146 103 271 5.0 14.0 0.00 0.00 0.00 29 1011.0
20260902222026 103 270 5.0 14.0 0.00 0.00 0.00 29 1011.0
20260902221927 103 269 5.0 14.0 0.00 0.00 0.00 29 1011.0
20260902221841 103 264 5.0 14.0 0.00 0.00 0.00 29 1011.0
20260902221721 103 257 6.0 14.0 0.00 0.00 0.00 30 1011.0
20260902221623 102 213 5.0 14.0 0.00 0.00 0.00 30 1011.0
20260902221524 103 249 4.0 14.0 0.00 0.00 0.00 30 1011.0
20260902221435 103 220 5.0 14.0 0.00 0.00 0.00 30 1011.0
20260902221335 103 240 5.0 14.0 0.00 0.00 0.00 30 1011.0
20260902221226 103 243 4.0 10.0 0.00 0.00 0.00 30 1011.0
20260902221126 103 267 2.0 10.0 0.00 0.00 0.00 29 1011.1
20260902221056 103 268 1.0 11.0 0.00 0.00 0.00 29 1011.1
20260902220916 103 268 3.0 11.0 0.00 0.00 0.00 29 1011.1
20260902220818 103 274 4.0 13.0 0.00 0.00 0.00 29 1011.1
20260902220719 103 274 5.0 13.0 0.00 0.00 0.00 29 1011.2
20260902220627 103 273 4.0 13.0 0.00 0.00 0.00 29 1011.2
20260902220533 103 252 4.0 13.0 0.00 0.00 0.00 29 1011.2
20260902220433 103 274 5.0 13.0 0.00 0.00 0.00 29 1011.3
20260902220339 103 274 6.0 13.0 0.00 0.00 0.00 29 1011.3
20260902220220 103 285 6.0 13.0 0.00 0.00 0.00 29 1011.3
20260902220120 103 246 5.0 13.0 0.00 0.00 0.00 29 1011.3
20260902220041 103 232 5.0 13.0 0.00 0.00 0.00 30 1011.3
20260902215933 103 265 6.0 12.0 0.00 0.00 0.00 29 1011.3
20260902215843 104 262 5.0 12.0 0.00 0.00 0.00 29 1011.4
20260902215744 104 270 4.0 12.0 0.00 0.00 0.00 29 1011.4
20260902215623 104 255 3.0 9.0 0.00 0.00 0.00 29 1011.4
20260902215534 104 235 3.0 9.0 0.00 0.00 0.00 29 1011.4
20260902215416 103 238 3.0 10.0 0.00 0.00 0.00 30 1011.5
20260902215322 103 237 3.0 10.0 0.00 0.00 0.00 30 1011.5
20260902215224 103 237 3.0 10.0 0.00 0.00 0.00 29 1011.5
20260902215155 103 237 4.0 10.0 0.00 0.00 0.00 30 1011.5
20260902215017 103 229 5.0 10.0 0.00 0.00 0.00 30 1011.5
20260902214917 103 234 5.0 10.0 0.00 0.00 0.00 29 1011.6
20260902214826 103 251 5.0 10.0 0.00 0.00 0.00 29 1011.4
20260902214728 103 243 6.0 10.0 0.00 0.00 0.00 29 1011.6
20260902214642 104 226 5.0 10.0 0.00 0.00 0.00 29 1011.6
20260902214521 103 264 3.0 8.0 0.00 0.00 0.00 29 1011.6
20260902214421 103 312 3.0 8.0 0.00 0.00 0.00 30 1011.5
20260902214328 103 312 3.0 8.0 0.00 0.00 0.00 30 1011.7
20260902214228 103 268 3.0 10.0 0.00 0.00 0.00 30 1011.7
20260902214137 103 241 4.0 10.0 0.00 0.00 0.00 29 1011.7
20260902214022 103 254 4.0 10.0 0.00 0.00 0.00 29 1011.7
20260902213924 103 210 4.0 11.0 0.00 0.00 0.00 28 1011.7
20260902213824 104 252 5.0 11.0 0.00 0.00 0.00 29 1011.7
20260902213735 104 258 4.0 11.0 0.00 0.00 0.00 28 1011.7
20260902213636 104 265 5.0 11.0 0.00 0.00 0.00 29 1011.7
20260902213517 103 265 5.0 11.0 0.00 0.00 0.00 29 1011.7
20260902213426 103 214 5.0 11.0 0.00 0.00 0.00 30 1011.7
20260902213332 103 217 6.0 11.0 0.00 0.00 0.00 29 1011.7
20260902213240 103 250 6.0 11.0 0.00 0.00 0.00 29 1011.7
20260902213122 103 256 5.0 11.0 0.00 0.00 0.00 29 1011.7
20260902213022 103 285 4.0 10.0 0.00 0.00 0.00 29 1011.7
20260902212952 103 251 4.0 10.0 0.00 0.00 0.00 29 1011.7
20260902212829 103 241 3.0 10.0 0.00 0.00 0.00 29 1011.8
20260902212736 103 221 2.0 10.0 0.00 0.00 0.00 29 1011.8
20260902212622 103 220 2.0 10.0 0.00 0.00 0.00 29 1011.8
20260902212524 103 223 3.0 10.0 0.00 0.00 0.00 28 1011.8
20260902212432 103 243 4.0 10.0 0.00 0.00 0.00 28 1011.8
20260902212333 103 181 5.0 10.0 0.00 0.00 0.00 28 1011.8
20260902212235 104 180 5.0 10.0 0.00 0.00 0.00 28 1011.7
20260902212115 104 224 4.0 11.0 0.00 0.00 0.00 28 1011.8
20260902212030 104 233 3.0 11.0 0.00 0.00 0.00 28 1011.8
20260902211946 104 231 2.0 11.0 0.00 0.00 0.00 28 1011.7
20260902211834 103 231 2.0 11.0 0.00 0.00 0.00 28 1011.7
20260902211755 103 226 2.0 11.0 0.00 0.00 0.00 28 1011.7
20260902211642 103 225 4.0 11.0 0.00 0.00 0.00 28 1011.8
20260902211543 103 229 5.0 11.0 0.00 0.00 0.00 28 1011.8
20260902211453 103 226 6.0 11.0 0.00 0.00 0.00 28 1011.8
20260902211317 103 243 5.0 11.0 0.00 0.00 0.00 28 1011.8
20260902211218 103 259 4.0 10.0 0.00 0.00 0.00 28 1011.9
20260902211128 103 253 3.0 8.0 0.00 0.00 0.00 29 1011.8
20260902211028 103 360 1.0 8.0 0.00 0.00 0.00 29 1011.9
20260902210929 103 244 0.0 10.0 0.00 0.00 0.00 30 1011.9
20260902210839 103 244 1.0 11.0 0.00 0.00 0.00 29 1011.9
20260902210721 103 244 1.0 11.0 0.00 0.00 0.00 29 1012.0
20260902210626 102 244 1.0 11.0 0.00 0.00 0.00 29 1012.0
20260902210536 103 244 2.0 11.0 0.00 0.00 0.00 29 1012.0
20260902210418 103 245 2.0 11.0 0.00 0.00 0.00 29 1012.1
20260902210339 103 260 3.0 11.0 0.00 0.00 0.00 28 1012.0
20260902210227 103 278 5.0 11.0 0.00 0.00 0.00 29 1012.0
20260902210129 103 281 6.0 11.0 0.00 0.00 0.00 28 1012.1
20260902210051 103 276 6.0 11.0 0.00 0.00 0.00 28 1012.1
20260902205943 103 243 5.0 11.0 0.00 0.00 0.00 29 1012.0
20260902205824 103 203 4.0 10.0 0.00 0.00 0.00 29 1012.0
20260902205734 104 203 5.0 10.0 0.00 0.00 0.00 29 1012.0
20260902205633 103 200 5.0 10.0 0.00 0.00 0.00 28 1012.1
20260902205536 103 193 2.0 9.0 0.00 0.00 0.00 29 1012.1
20260902205425 103 192 2.0 9.0 0.00 0.00 0.00 29 1012.1
20260902205350 102 193 1.0 11.0 0.00 0.00 0.00 29 1012.1
20260902205216 102 193 1.0 11.0 0.00 0.00 0.00 29 1012.2
20260902205118 102 193 1.0 11.0 0.00 0.00 0.00 29 1012.2
20260902205028 102 193 2.0 11.0 0.00 0.00 0.00 29 1012.1
20260902204928 102 193 3.0 11.0 0.00 0.00 0.00 28 1012.2
20260902204828 102 193 4.0 11.0 0.00 0.00 0.00 29 1012.3
20260902204737 103 193 6.0 11.0 0.00 0.00 0.00 28 1012.3
20260902204621 103 193 5.0 11.0 0.00 0.00 0.00 28 1012.3
20260902204523 103 203 3.0 11.0 0.00 0.00 0.00 29 1012.2
20260902204433 102 232 1.0 6.0 0.00 0.00 0.00 29 1012.2
20260902204316 102 237 1.0 6.0 0.00 0.00 0.00 28 1012.2
20260902204218 102 241 1.0 6.0 0.00 0.00 0.00 28 1012.3
20260902204120 102 243 2.0 6.0 0.00 0.00 0.00 29 1012.4
20260902204035 102 245 2.0 6.0 0.00 0.00 0.00 29 1012.4
20260902203916 102 245 1.0 7.0 0.00 0.00 0.00 29 1012.3
20260902203817 102 245 1.0 9.0 0.00 0.00 0.00 30 1012.2
20260902203726 102 246 1.0 9.0 0.00 0.00 0.00 30 1012.3
20260902203626 102 247 2.0 9.0 0.00 0.00 0.00 30 1012.4
20260902203528 102 243 2.0 9.0 0.00 0.00 0.00 29 1012.3
20260902203441 102 243 2.0 13.0 0.00 0.00 0.00 29 1012.3
20260902203323 102 243 2.0 13.0 0.00 0.00 0.00 29 1012.3
20260902203225 102 243 3.0 13.0 0.00 0.00 0.00 30 1012.4
20260902203124 102 243 3.0 13.0 0.00 0.00 0.00 29 1012.4
20260902203032 102 245 2.0 13.0 0.00 0.00 0.00 30 1012.4
20260902202940 102 197 2.0 13.0 0.00 0.00 0.00 29 1012.4
20260902202818 102 196 4.0 13.0 0.00 0.00 0.00 28 1012.5
20260902202722 103 196 6.0 13.0 0.00 0.00 0.00 28 1012.5
20260902202633 103 201 6.0 13.0 0.00 0.00 0.00 28 1012.5
20260902202554 103 243 3.0 9.0 0.00 0.00 0.00 28 1012.4
20260902202439 103 227 2.0 9.0 0.00 0.00 0.00 28 1012.4
20260902202340 103 272 2.0 10.0 0.00 0.00 0.00 28 1012.5
20260902202220 103 270 3.0 10.0 0.00 0.00 0.00 28 1012.4
20260902202130 103 270 4.0 10.0 0.00 0.00 0.00 28 1012.4
20260902202015 103 262 4.0 10.0 0.00 0.00 0.00 28 1012.6
20260902201917 103 248 4.0 10.0 0.00 0.00 0.00 28 1012.5
20260902201817 103 245 4.0 10.0 0.00 0.00 0.00 28 1012.5
20260902201724 103 266 4.0 10.0 0.00 0.00 0.00 29 1012.6
20260902201633 103 229 4.0 10.0 0.00 0.00 0.00 28 1012.6
20260902201532 103 252 3.0 10.0 0.00 0.00 0.00 28 1012.6
20260902201501 103 248 2.0 10.0 0.00 0.00 0.00 29 1012.7
20260902201324 102 238 3.0 9.0 0.00 0.00 0.00 29 1012.6
20260902201243 102 238 4.0 11.0 0.00 0.00 0.00 29 1012.7
20260902201132 102 229 3.0 11.0 0.00 0.00 0.00 29 1012.7
20260902201033 102 231 3.0 11.0 0.00 0.00 0.00 28 1012.7
20260902200933 102 231 3.0 11.0 0.00 0.00 0.00 28 1012.7
20260902200841 102 229 2.0 11.0 0.00 0.00 0.00 28 1012.9
20260902200726 102 226 1.0 11.0 0.00 0.00 0.00 27 1012.8
20260902200627 102 226 2.0 12.0 0.00 0.00 0.00 28 1012.9
20260902200536 102 226 3.0 12.0 0.00 0.00 0.00 28 1012.9
20260902200418 102 226 3.0 12.0 0.00 0.00 0.00 28 1013.0
20260902200318 102 259 3.0 12.0 0.00 0.00 0.00 29 1013.0
20260902200221 101 262 3.0 12.0 0.00 0.00 0.00 29 1013.0
20260902200149 101 253 4.0 12.0 0.00 0.00 0.00 29 1013.0
20260902200032 101 252 5.0 12.0 0.00 0.00 0.00 29 1013.0
20260902195922 101 259 5.0 12.0 0.00 0.00 0.00 28 1012.9
20260902195850 102 255 3.0 10.0 0.00 0.00 0.00 28 1012.9
20260902195729 102 240 3.0 9.0 0.00 0.00 0.00 29 1012.9
20260902195639 102 238 4.0 12.0 0.00 0.00 0.00 29 1012.9
20260902195541 102 236 4.0 12.0 0.00 0.00 0.00 29 1013.0
20260902195421 102 235 4.0 12.0 0.00 0.00 0.00 29 1013.0
20260902195335 102 274 4.0 12.0 0.00 0.00 0.00 28 1013.0
20260902195217 102 266 3.0 12.0 0.00 0.00 0.00 29 1013.0
20260902195140 102 198 3.0 12.0 0.00 0.00 0.00 28 1013.0
20260902195028 102 219 4.0 12.0 0.00 0.00 0.00 28 1012.9
20260902194930 103 228 5.0 12.0 0.00 0.00 0.00 27 1012.9
20260902194831 103 232 3.0 12.0 0.00 0.00 0.00 28 1013.0
20260902194717 103 272 1.0 10.0 0.00 0.00 0.00 28 1013.0
20260902194627 103 275 0.0 10.0 0.00 0.00 0.00 29 1013.0
20260902194547 102 274 0.0 10.0 0.00 0.00 0.00 30 1013.0
20260902194435 102 274 1.0 10.0 0.00 0.00 0.00 30 1013.0
20260902194316 102 275 2.0 10.0 0.00 0.00 0.00 29 1013.1
20260902194218 101 274 3.0 10.0 0.00 0.00 0.00 29 1013.1
20260902194123 101 274 5.0 10.0 0.00 0.00 0.00 29 1013.2
20260902194033 101 275 4.0 10.0 0.00 0.00 0.00 29 1013.2
20260902193933 101 279 2.0 8.0 0.00 0.00 0.00 29 1013.2
20260902193841 101 273 3.0 8.0 0.00 0.00 0.00 29 1013.2
20260902193741 101 276 4.0 8.0 0.00 0.00 0.00 29 1013.2
20260902193621 101 275 4.0 8.0 0.00 0.00 0.00 30 1013.3
20260902193527 101 278 4.0 9.0 0.00 0.00 0.00 29 1013.3
20260902193437 101 278 3.0 9.0 0.00 0.00 0.00 30 1013.3
20260902193338 101 253 2.0 9.0 0.00 0.00 0.00 30 1013.4
20260902193246 101 253 2.0 9.0 0.00 0.00 0.00 30 1013.3
20260902193123 101 255 2.0 9.0 0.00 0.00 0.00 30 1013.4
20260902193026 101 255 3.0 9.0 0.00 0.00 0.00 30 1013.4
20260902192927 101 259 3.0 10.0 0.00 0.00 0.00 30 1013.5
20260902192840 100 259 4.0 10.0 0.00 0.00 0.00 30 1013.5
20260902192720 100 245 4.0 10.0 0.00 0.00 0.00 30 1013.5
20260902192622 100 239 4.0 10.0 0.00 0.00 0.00 30 1013.5
20260902192532 100 234 6.0 10.0 0.00 0.00 0.00 29 1013.5
20260902192433 100 219 6.0 10.0 0.00 0.00 0.00 29 1013.6
20260902192339 101 218 6.0 10.0 0.00 0.00 0.00 28 1013.6
20260902192226 101 221 5.0 10.0 0.00 0.00 0.00 28 1013.7
20260902192128 101 218 6.0 13.0 0.00 0.00 0.00 28 1013.5
20260902192031 101 217 5.0 13.0 0.00 0.00 0.00 29 1013.5
20260902191940 100 236 5.0 13.0 0.00 0.00 0.00 29 1013.7
20260902191820 100 226 4.0 13.0 0.00 0.00 0.00 30 1013.6
20260902191727 100 208 2.0 13.0 0.00 0.00 0.00 30 1013.7
20260902191627 100 208 4.0 13.0 0.00 0.00 0.00 29 1013.7
20260902191541 100 208 5.0 13.0 0.00 0.00 0.00 29 1013.7
20260902191423 101 205 5.0 13.0 0.00 0.00 0.00 29 1013.8
20260902191324 101 221 4.0 11.0 0.00 0.00 0.00 29 1013.7
20260902191254 101 256 4.0 11.0 0.00 0.00 0.00 29 1013.7
20260902191134 101 242 3.0 11.0 0.00 0.00 0.00 30 1013.8
20260902191017 101 242 4.0 11.0 0.00 0.00 0.00 29 1013.8
20260902190922 101 246 4.0 11.0 0.00 0.00 0.00 29 1013.8
20260902190832 101 245 4.0 11.0 0.00 0.00 0.00 29 1013.8
20260902190732 101 250 4.0 11.0 0.00 0.00 0.00 29 1013.8
20260902190632 101 230 4.0 11.0 0.00 0.00 0.00 30 1013.9
20260902190541 101 226 4.0 11.0 0.00 0.00 0.00 30 1013.9
20260902190442 101 210 2.0 8.0 0.00 0.00 0.00 31 1013.8
20260902190321 100 198 2.0 10.0 0.00 0.00 0.00 32 1013.9
20260902190235 100 197 2.0 10.0 0.00 0.00 0.00 31 1013.9
20260902190116 100 197 3.0 10.0 0.00 0.00 0.00 31 1013.9
20260902190038 100 197 3.0 13.0 0.00 0.00 0.00 31 1013.9
20260902185928 100 198 4.0 13.0 0.00 0.00 0.00 31 1013.9
20260902185828 100 189 3.0 13.0 0.00 0.00 0.00 31 1013.9
20260902185736 100 186 3.0 13.0 0.00 0.00 0.00 31 1013.9
20260902185622 100 186 4.0 13.0 0.00 0.00 0.00 32 1013.9
20260902185522 100 184 5.0 13.0 0.00 0.00 0.00 31 1013.9
20260902185433 100 184 6.0 13.0 0.00 0.00 0.00 31 1013.9
20260902185334 100 166 6.0 13.0 0.00 0.00 0.00 31 1014.0
20260902185215 100 250 4.0 13.0 0.00 0.00 0.00 32 1013.8
20260902185116 100 258 3.0 7.0 0.00 0.00 0.00 32 1013.8
20260902185028 100 258 3.0 7.0 0.00 0.00 0.00 32 1013.9
20260902184930 100 257 1.0 7.0 0.00 0.00 0.00 32 1013.9
20260902184840 99 257 2.0 7.0 0.00 0.00 0.00 32 1013.8
20260902184721 99 251 4.0 7.0 0.00 0.00 0.00 34 1014.0
20260902184641 99 244 3.0 7.0 0.00 0.00 0.00 32 1014.0
20260902184528 99 244 1.0 7.0 0.00 0.00 0.00 32 1014.1
20260902184427 99 251 0.0 5.0 0.00 0.00 0.00 32 1014.1
20260902184333 99 251 2.0 5.0 0.00 0.00 0.00 32 1014.1
20260902184241 99 251 2.0 5.0 0.00 0.00 0.00 32 1014.1
20260902184122 99 251 1.0 4.0 0.00 0.00 0.00 32 1014.1
20260902184023 99 251 1.0 4.0 0.00 0.00 0.00 33 1014.1
20260902183953 99 250 0.0 5.0 0.00 0.00 0.00 32 1014.1
20260902183855 99 250 1.0 7.0 0.00 0.00 0.00 32 1014.1
20260902183719 99 250 2.0 7.0 0.00 0.00 0.00 32 1014.0
20260902183628 100 251 3.0 7.0 0.00 0.00 0.00 31 1014.1
20260902183528 100 250 2.0 8.0 0.00 0.00 0.00 32 1014.1
20260902183458 101 250 1.0 8.0 0.00 0.00 0.00 32 1014.1
20260902183318 101 285 2.0 8.0 0.00 0.00 0.00 34 1014.1
20260902183247 101 285 3.0 8.0 0.00 0.00 0.00 34 1014.1
20260902183125 101 285 4.0 8.0 0.00 0.00 0.00 34 1014.1
20260902183035 100 281 4.0 8.0 0.00 0.00 0.00 34 1014.1
20260902182941 100 279 3.0 8.0 0.00 0.00 0.00 33 1014.2
20260902182826 100 277 3.0 8.0 0.00 0.00 0.00 33 1014.1
20260902182728 100 274 2.0 8.0 0.00 0.00 0.00 33 1014.2
20260902182628 100 146 1.0 7.0 0.00 0.00 0.00 34 1014.2
20260902182538 100 147 2.0 7.0 0.00 0.00 0.00 34 1014.2
20260902182438 99 146 2.0 7.0 0.00 0.00 0.00 36 1014.3
20260902182319 99 146 2.0 7.0 0.00 0.00 0.00 35 1014.2
20260902182233 99 146 2.0 7.0 0.00 0.00 0.00 35 1014.2
20260902182133 98 146 3.0 7.0 0.00 0.00 0.00 35 1014.3
20260902182042 98 146 2.0 7.0 0.00 0.00 0.00 35 1014.2
20260902181924 98 108 1.0 7.0 0.00 0.00 0.00 34 1014.3
20260902181843 98 108 2.0 7.0 0.00 0.00 0.00 33 1014.3
20260902181732 99 108 3.0 7.0 0.00 0.00 0.00 33 1014.3
20260902181617 99 108 3.0 7.0 0.00 0.00 0.00 33 1014.3
20260902181518 100 94 2.0 5.0 0.00 0.00 0.00 33 1014.4
20260902181420 100 94 2.0 5.0 0.00 0.00 0.00 34 1014.5
20260902181331 100 93 1.0 4.0 0.00 0.00 0.00 34 1014.5
20260902181231 100 94 0.0 3.0 0.00 0.00 0.00 35 1014.4
20260902181138 99 93 1.0 3.0 0.00 0.00 0.00 35 1014.4
20260902181018 99 94 1.0 3.0 0.00 0.00 0.00 35 1014.5
20260902180923 99 94 1.0 3.0 0.00 0.00 0.00 38 1014.5
20260902180833 99 93 1.0 3.0 0.00 0.00 0.00 36 1014.5
20260902180733 98 94 1.0 3.0 0.00 0.00 0.00 35 1014.5
20260902180642 98 94 1.0 3.0 0.00 0.00 0.00 35 1014.6
20260902180525 99 94 0.0 3.0 0.00 0.00 0.00 34 1014.7
20260902180426 99 94 0.0 4.0 0.00 0.00 0.00 36 1014.6
20260902180333 99 94 1.0 5.0 0.00 0.00 0.00 37 1014.6
20260902180241 99 94 1.0 5.0 0.00 0.00 0.00 37 1014.6
20260902180122 98 94 1.0 6.0 0.00 0.00 0.00 36 1014.6
20260902180034 98 94 1.0 6.0 0.00 0.00 0.00 36 1014.6
20260902175921 98 94 1.0 6.0 0.00 0.00 0.00 36 1014.7
20260902175832 98 94 1.0 6.0 0.00 0.00 0.00 36 1014.7
20260902175717 98 94 1.0 6.0 0.00 0.00 0.00 36 1014.7
20260902175619 98 93 2.0 6.0 0.00 0.00 0.00 36 1014.7
20260902175519 98 94 3.0 6.0 0.00 0.00 0.00 36 1014.7
20260902175444 98 93 2.0 6.0 0.00 0.00 0.00 36 1014.8
20260902175332 98 93 1.0 6.0 0.00 0.00 0.00 36 1014.8
20260902175233 97 92 0.0 4.0 0.00 0.00 0.00 37 1014.7
20260902175116 97 92 1.0 4.0 0.00 0.00 0.00 37 1014.7
20260902175017 97 93 2.0 4.0 0.00 0.00 0.00 36 1014.7
20260902174927 97 92 2.0 4.0 0.00 0.00 0.00 36 1014.7
20260902174828 97 92 2.0 4.0 0.00 0.00 0.00 37 1014.7
20260902174736 97 105 2.0 4.0 0.00 0.00 0.00 37 1014.7
20260902174617 97 105 1.0 4.0 0.00 0.00 0.00 36 1014.6
20260902174538 97 105 1.0 3.0 0.00 0.00 0.00 36 1014.7
20260902174431 97 105 1.0 3.0 0.00 0.00 0.00 36 1014.7
20260902174333 97 105 1.0 3.0 0.00 0.00 0.00 37 1014.6
20260902174234 97 105 0.0 6.0 0.00 0.00 0.00 36 1014.7
20260902174143 97 105 0.0 6.0 0.00 0.00 0.00 36 1014.6
20260902174024 98 105 0.0 6.0 0.00 0.00 0.00 37 1014.7
20260902173924 97 105 0.0 6.0 0.00 0.00 0.00 39 1014.7
20260902173831 96 105 1.0 6.0 0.00 0.00 0.00 38 1014.7
20260902173738 96 105 1.0 6.0 0.00 0.00 0.00 38 1014.7
20260902173641 96 105 1.0 6.0 0.00 0.00 0.00 38 1014.8
20260902173610 96 105 1.0 6.0 0.00 0.00 0.00 37 1014.8
20260902173351 96 105 3.0 6.0 0.00 0.00 0.00 37 1014.9
20260902173142 96 88 1.0 4.0 0.00 0.00 0.00 38 1014.9
20260902172930 96 89 0.0 3.0 0.00 0.00 0.00 37 1014.7
20260902172535 97 88 0.0 3.0 0.00 0.00 0.00 37 1014.7
20260902172423 97 89 0.0 3.0 0.00 0.00 0.00 37 1014.8
20260902172353 97 88 1.0 3.0 0.00 0.00 0.00 39 1014.8
20260902172233 96 88 1.0 3.0 0.00 0.00 0.00 38 1014.7
20260902172141 96 88 1.0 3.0 0.00 0.00 0.00 40 1014.7
20260902172043 96 88 1.0 3.0 0.00 0.00 0.00 38 1014.7
20260902171920 96 88 1.0 3.0 0.00 0.00 0.00 37 1014.7
20260902171833 96 88 0.0 3.0 0.00 0.00 0.00 38 1014.7
20260902171753 96 88 0.0 3.0 0.00 0.00 0.00 38 1014.7
20260902171639 96 88 0.0 3.0 0.00 0.00 0.00 38 1014.7
20260902171518 96 88 0.0 3.0 0.00 0.00 0.00 38 1014.6
20260902171447 96 88 0.0 3.0 0.00 0.00 0.00 37 1014.6
20260902171326 96 88 0.0 3.0 0.00 0.00 0.00 38 1014.7
20260902171256 96 87 0.0 3.0 0.00 0.00 0.00 38 1014.7
20260902171022 96 87 1.0 3.0 0.00 0.00 0.00 38 1014.6
20260902170921 96 88 1.0 3.0 0.00 0.00 0.00 37 1014.6
20260902170850 96 88 1.0 3.0 0.00 0.00 0.00 38 1014.7
20260902170731 96 88 1.0 2.0 0.00 0.00 0.00 39 1014.7
20260902170632 95 88 1.0 2.0 0.00 0.00 0.00 39 1014.6
20260902170541 95 88 1.0 2.0 0.00 0.00 0.00 38 1014.7
20260902170441 96 87 0.0 2.0 0.00 0.00 0.00 39 1014.6
20260902170328 95 87 0.0 2.0 0.00 0.00 0.00 38 1014.6
20260902170235 95 87 0.0 3.0 0.00 0.00 0.00 40 1014.6
20260902170136 94 88 0.0 3.0 0.00 0.00 0.00 42 1014.7
20260902170057 94 87 0.0 3.0 0.00 0.00 0.00 42 1014.7
20260902165953 94 87 0.0 3.0 0.00 0.00 0.00 39 1014.7
20260902165837 94 88 0.0 4.0 0.00 0.00 0.00 39 1014.7
20260902165718 94 87 0.0 4.0 0.00 0.00 0.00 39 1014.7
20260902165620 94 87 1.0 4.0 0.00 0.00 0.00 39 1014.8
20260902165525 94 87 1.0 4.0 0.00 0.00 0.00 40 1014.9
20260902165435 94 87 1.0 4.0 0.00 0.00 0.00 39 1014.9
20260902165319 94 87 0.0 4.0 0.00 0.00 0.00 39 1014.9
20260902165220 94 87 1.0 4.0 0.00 0.00 0.00 40 1014.9
20260902165149 94 87 2.0 4.0 0.00 0.00 0.00 40 1014.9
20260902165047 94 87 1.0 4.0 0.00 0.00 0.00 39 1014.9
20260902164956 94 87 0.0 0.0 0.00 0.00 0.00 40 1014.9
20260902164818 94 87 0.0 0.0 0.00 0.00 0.00 41 1014.9
20260902164747 93 87 0.0 0.0 0.00 0.00 0.00 40 1014.9
20260902164634 94 87 0.0 1.0 0.00 0.00 0.00 40 1014.9
20260902164554 94 87 0.0 1.0 0.00 0.00 0.00 41 1014.9
20260902164440 94 87 0.0 1.0 0.00 0.00 0.00 41 1014.9
20260902164322 94 87 0.0 2.0 0.00 0.00 0.00 41 1014.9
20260902164245 94 87 0.0 2.0 0.00 0.00 0.00 41 1014.9
20260902164133 94 87 0.0 2.0 0.00 0.00 0.00 41 1014.9
20260902164019 94 87 0.0 2.0 0.00 0.00 0.00 41 1014.9
20260902163919 94 87 0.0 2.0 0.00 0.00 0.00 42 1014.9
20260902163848 93 87 0.0 2.0 0.00 0.00 0.00 42 1014.9
20260902163727 93 87 0.0 3.0 0.00 0.00 0.00 42 1014.9
20260902163626 93 87 1.0 3.0 0.00 0.00 0.00 41 1014.9
20260902163556 94 86 0.0 3.0 0.00 0.00 0.00 41 1014.9
20260902163417 94 87 0.0 3.0 0.00 0.00 0.00 41 1014.9
20260902163332 94 87 0.0 3.0 0.00 0.00 0.00 41 1014.9
20260902163232 94 87 0.0 3.0 0.00 0.00 0.00 41 1014.9
20260902163130 94 87 1.0 3.0 0.00 0.00 0.00 42 1014.8
20260902163040 94 87 1.0 3.0 0.00 0.00 0.00 43 1014.9
20260902162921 94 87 1.0 6.0 0.00 0.00 0.00 41 1014.8
20260902162821 95 87 2.0 6.0 0.00 0.00 0.00 41 1014.8
20260902162736 95 87 2.0 6.0 0.00 0.00 0.00 41 1014.8
20260902162657 95 87 2.0 6.0 0.00 0.00 0.00 41 1014.8
20260902162544 95 84 1.0 6.0 0.00 0.00 0.00 41 1014.8
20260902162332 94 84 1.0 6.0 0.00 0.00 0.00 44 1014.8
20260902162233 93 84 1.0 6.0 0.00 0.00 0.00 44 1014.7
20260902162134 93 84 1.0 6.0 0.00 0.00 0.00 43 1014.7
20260902162042 93 79 0.0 4.0 0.00 0.00 0.00 43 1014.7
20260902161956 93 79 0.0 4.0 0.00 0.00 0.00 43 1014.7
20260902161752 93 79 0.0 4.0 0.00 0.00 0.00 43 1014.6
20260902161625 93 79 1.0 4.0 0.00 0.00 0.00 44 1014.6
20260902161548 93 79 1.0 4.0 0.00 0.00 0.00 44 1014.6
20260902161437 93 79 0.0 4.0 0.00 0.00 0.00 44 1014.6
20260902161320 93 79 1.0 4.0 0.00 0.00 0.00 44 1014.5
20260902161241 92 79 2.0 4.0 0.00 0.00 0.00 44 1014.5
20260902161127 92 79 1.0 4.0 0.00 0.00 0.00 44 1014.6
20260902161034 92 79 1.0 3.0 0.00 0.00 0.00 44 1014.6
20260902160917 92 79 0.0 3.0 0.00 0.00 0.00 44 1014.5
20260902160818 92 79 0.0 3.0 0.00 0.00 0.00 44 1014.6
20260902160728 92 79 0.0 3.0 0.00 0.00 0.00 45 1014.6
20260902160630 92 79 1.0 3.0 0.00 0.00 0.00 45 1014.6
20260902160516 92 79 1.0 3.0 0.00 0.00 0.00 44 1014.6
20260902160445 92 79 1.0 3.0 0.00 0.00 0.00 45 1014.5
20260902160323 92 79 1.0 3.0 0.00 0.00 0.00 44 1014.5
20260902160234 92 79 1.0 3.0 0.00 0.00 0.00 45 1014.5
20260902160133 92 79 1.0 3.0 0.00 0.00 0.00 45 1014.5
20260902160033 92 79 1.0 3.0 0.00 0.00 0.00 45 1014.6
20260902155921 92 79 1.0 3.0 0.00 0.00 0.00 45 1014.6
20260902155833 92 78 1.0 3.0 0.00 0.00 0.00 45 1014.6
20260902155717 92 79 1.0 2.0 0.00 0.00 0.00 45 1014.6
20260902155620 92 79 0.0 2.0 0.00 0.00 0.00 45 1014.6
20260902155520 92 78 0.0 1.0 0.00 0.00 0.00 46 1014.6
20260902155430 91 79 0.0 1.0 0.00 0.00 0.00 46 1014.6
20260902155332 91 79 0.0 1.0 0.00 0.00 0.00 46 1014.7
20260902155218 91 79 0.0 2.0 0.00 0.00 0.00 45 1014.7
20260902155120 91 78 0.0 3.0 0.00 0.00 0.00 47 1014.7
20260902155029 91 79 0.0 3.0 0.00 0.00 0.00 47 1014.7
20260902154931 91 78 0.0 3.0 0.00 0.00 0.00 46 1014.7
20260902154835 91 78 0.0 3.0 0.00 0.00 0.00 46 1014.7
20260902154626 91 78 0.0 3.0 0.00 0.00 0.00 46 1014.7
20260902154528 91 78 0.0 3.0 0.00 0.00 0.00 46 1014.8
20260902154428 91 78 1.0 3.0 0.00 0.00 0.00 46 1014.9
20260902154338 91 78 1.0 3.0 0.00 0.00 0.00 47 1014.9
20260902154221 91 78 0.0 2.0 0.00 0.00 0.00 46 1014.8
20260902154122 91 78 0.0 2.0 0.00 0.00 0.00 46 1014.9
20260902154031 91 78 0.0 2.0 0.00 0.00 0.00 46 1014.9
20260902153918 91 78 0.0 2.0 0.00 0.00 0.00 47 1014.8
20260902153819 91 79 0.0 2.0 0.00 0.00 0.00 47 1014.8
20260902153729 91 78 1.0 2.0 0.00 0.00 0.00 48 1014.8
20260902153627 91 79 0.0 2.0 0.00 0.00 0.00 47 1014.8
20260902153530 91 78 0.0 2.0 0.00 0.00 0.00 47 1014.8
20260902153440 90 79 0.0 2.0 0.00 0.00 0.00 47 1014.6
20260902153326 90 78 0.0 2.0 0.00 0.00 0.00 48 1014.7
20260902153226 90 78 0.0 2.0 0.00 0.00 0.00 48 1014.7
20260902153137 90 78 0.0 1.0 0.00 0.00 0.00 48 1014.7
20260902153019 90 78 0.0 1.0 0.00 0.00 0.00 48 1014.8
20260902152920 89 78 0.0 1.0 0.00 0.00 0.00 50 1014.8
20260902152827 89 78 0.0 1.0 0.00 0.00 0.00 51 1014.8
20260902152733 89 78 0.0 1.0 0.00 0.00 0.00 52 1014.8
20260902152703 89 78 0.0 1.0 0.00 0.00 0.00 51 1014.8
20260902152523 89 78 0.0 2.0 0.00 0.00 0.00 51 1014.8
20260902152424 89 79 0.0 2.0 0.00 0.00 0.00 52 1014.8
20260902152233 89 79 0.0 2.0 0.00 0.00 0.00 52 1014.7
20260902152135 88 79 0.0 2.0 0.00 0.00 0.00 51 1014.7
20260902152020 88 79 0.0 2.0 0.00 0.00 0.00 51 1014.6
20260902151928 88 79 0.0 2.0 0.00 0.00 0.00 51 1014.7
20260902151831 88 79 1.0 2.0 0.00 0.00 0.00 52 1014.7
20260902151733 88 79 1.0 2.0 0.00 0.00 0.00 52 1014.6
20260902151641 88 79 0.0 2.0 0.00 0.00 0.00 54 1014.6
20260902151522 88 79 0.0 2.0 0.00 0.00 0.00 53 1014.6
20260902151457 88 79 0.0 2.0 0.00 0.00 0.00 53 1014.6
20260902151317 88 79 0.0 2.0 0.00 0.00 0.00 54 1014.5
20260902151218 88 79 0.0 2.0 0.00 0.00 0.00 54 1014.5
20260902151127 88 79 0.0 2.0 0.00 0.00 0.00 54 1014.5
20260902151049 87 79 0.0 2.0 0.00 0.00 0.00 54 1014.5
20260902150830 87 79 1.0 2.0 0.00 0.00 0.00 54 1014.4
20260902150715 87 79 0.0 1.0 0.00 0.00 0.00 54 1014.4
20260902150644 87 79 0.0 1.0 0.00 0.00 0.00 54 1014.4
20260902150552 87 79 0.0 1.0 0.00 0.00 0.00 55 1014.4
20260902150432 87 79 0.0 2.0 0.00 0.00 0.00 54 1014.4
20260902150334 87 79 0.0 2.0 0.00 0.00 0.00 55 1014.3
20260902150217 87 79 0.0 2.0 0.00 0.00 0.00 55 1014.4
20260902150146 87 79 0.0 2.0 0.00 0.00 0.00 55 1014.4
20260902150044 87 79 0.0 2.0 0.00 0.00 0.00 55 1014.4
20260902145919 86 79 0.0 2.0 0.00 0.00 0.00 55 1014.4
20260902145821 86 79 0.0 2.0 0.00 0.00 0.00 55 1014.4
20260902145732 86 79 1.0 2.0 0.00 0.00 0.00 55 1014.4
20260902145633 86 79 1.0 2.0 0.00 0.00 0.00 56 1014.4
20260902145516 86 79 0.0 1.0 0.00 0.00 0.00 56 1014.6
20260902145416 86 79 0.0 1.0 0.00 0.00 0.00 55 1014.5
20260902145331 86 80 0.0 1.0 0.00 0.00 0.00 55 1014.5
20260902145234 86 79 0.0 1.0 0.00 0.00 0.00 56 1014.5
20260902145134 86 80 0.0 1.0 0.00 0.00 0.00 56 1014.5
20260902145017 86 360 0.0 1.0 0.00 0.00 0.00 57 1014.5
20260902144926 86 360 0.0 1.0 0.00 0.00 0.00 56 1014.4
20260902144828 86 360 0.0 1.0 0.00 0.00 0.00 56 1014.4
20260902144741 86 360 0.0 1.0 0.00 0.00 0.00 56 1014.4
20260902144622 86 360 0.0 1.0 0.00 0.00 0.00 57 1014.5
20260902144524 85 360 0.0 1.0 0.00 0.00 0.00 57 1014.5
20260902144435 85 360 0.0 1.0 0.00 0.00 0.00 57 1014.5
20260902144315 85 360 0.0 1.0 0.00 0.00 0.00 57 1014.4
20260902144218 85 360 0.0 1.0 0.00 0.00 0.00 57 1014.3
20260902144123 85 360 0.0 1.0 0.00 0.00 0.00 57 1014.4
20260902144034 85 80 0.0 1.0 0.00 0.00 0.00 57 1014.4
20260902143916 85 360 0.0 1.0 0.00 0.00 0.00 57 1014.3
20260902143819 85 360 0.0 1.0 0.00 0.00 0.00 57 1014.3
20260902143721 85 360 0.0 3.0 0.00 0.00 0.00 57 1014.3
20260902143632 85 360 0.0 3.0 0.00 0.00 0.00 58 1014.3
20260902143535 85 360 0.0 3.0 0.00 0.00 0.00 58 1014.3
20260902143445 85 360 0.0 3.0 0.00 0.00 0.00 58 1014.3
20260902143327 85 360 0.0 3.0 0.00 0.00 0.00 58 1014.3
20260902143229 85 360 0.0 3.0 0.00 0.00 0.00 58 1014.2
20260902143115 85 360 0.0 3.0 0.00 0.00 0.00 58 1014.3
20260902143018 84 360 1.0 3.0 0.00 0.00 0.00 59 1014.3
20260902142919 84 360 1.0 3.0 0.00 0.00 0.00 59 1014.3
20260902142833 84 360 0.0 2.0 0.00 0.00 0.00 59 1014.3
20260902142715 84 360 0.0 2.0 0.00 0.00 0.00 59 1014.3
20260902142622 84 360 0.0 3.0 0.00 0.00 0.00 59 1014.3
20260902142524 84 360 0.0 3.0 0.00 0.00 0.00 59 1014.3
20260902142425 84 360 0.0 3.0 0.00 0.00 0.00 59 1014.3
20260902142335 84 360 0.0 3.0 0.00 0.00 0.00 59 1014.3
20260902142132 84 360 1.0 3.0 0.00 0.00 0.00 59 1014.3
20260902142034 84 360 1.0 3.0 0.00 0.00 0.00 59 1014.2
20260902141916 84 360 1.0 3.0 0.00 0.00 0.00 59 1014.2
20260902141817 84 360 1.0 3.0 0.00 0.00 0.00 59 1014.2
20260902141746 84 360 1.0 3.0 0.00 0.00 0.00 60 1014.2
20260902141625 84 360 1.0 2.0 0.00 0.00 0.00 60 1014.2
20260902141539 84 360 1.0 2.0 0.00 0.00 0.00 60 1014.2
20260902141422 84 360 1.0 2.0 0.00 0.00 0.00 59 1014.1
20260902141323 84 360 1.0 2.0 0.00 0.00 0.00 60 1014.1
20260902141235 84 360 0.0 2.0 0.00 0.00 0.00 60 1014.1
20260902141135 84 360 0.0 2.0 0.00 0.00 0.00 60 1014.1
20260902141017 84 360 1.0 2.0 0.00 0.00 0.00 60 1014.0
20260902140923 84 360 1.0 2.0 0.00 0.00 0.00 59 1014.1
20260902140833 84 360 0.0 2.0 0.00 0.00 0.00 59 1014.1
20260902140734 84 360 0.0 0.0 0.00 0.00 0.00 60 1014.1
20260902140616 84 360 0.0 0.0 0.00 0.00 0.00 60 1014.2
20260902140546 84 360 0.0 0.0 0.00 0.00 0.00 59 1014.1
20260902140426 84 360 0.0 0.0 0.00 0.00 0.00 59 1014.1
20260902140333 84 360 0.0 0.0 0.00 0.00 0.00 59 1014.1
20260902140241 84 360 0.0 0.0 0.00 0.00 0.00 59 1014.1
20260902140122 84 360 0.0 0.0 0.00 0.00 0.00 60 1014.0
20260902140035 84 360 0.0 0.0 0.00 0.00 0.00 60 1014.0
20260902135933 84 360 0.0 0.0 0.00 0.00 0.00 60 1014.0
20260902135833 83 360 0.0 0.0 0.00 0.00 0.00 60 1014.0
20260902135720 83 360 0.0 0.0 0.00 0.00 0.00 59 1014.1
20260902135622 83 360 0.0 0.0 0.00 0.00 0.00 59 1014.1
20260902135532 83 76 0.0 0.0 0.00 0.00 0.00 59 1014.1
20260902135432 83 76 0.0 0.0 0.00 0.00 0.00 60 1014.1
20260902135333 83 76 0.0 0.0 0.00 0.00 0.00 60 1014.2
20260902135241 83 76 0.0 0.0 0.00 0.00 0.00 60 1014.1
20260902135126 83 76 0.0 0.0 0.00 0.00 0.00 60 1014.0
20260902135029 83 76 0.0 0.0 0.00 0.00 0.00 60 1014.0
20260902134930 83 76 0.0 0.0 0.00 0.00 0.00 60 1014.0
20260902134839 83 76 0.0 0.0 0.00 0.00 0.00 60 1013.9
20260902134721 83 76 0.0 0.0 0.00 0.00 0.00 60 1013.9
20260902134622 83 76 0.0 0.0 0.00 0.00 0.00 60 1014.0
20260902134552 83 76 0.0 0.0 0.00 0.00 0.00 60 1014.0
20260902134416 83 76 0.0 0.0 0.00 0.00 0.00 60 1013.9
20260902134325 83 76 0.0 0.0 0.00 0.00 0.00 60 1013.9
20260902134225 83 76 0.0 0.0 0.00 0.00 0.00 60 1013.9
20260902134154 83 76 0.0 0.0 0.00 0.00 0.00 60 1013.9
20260902134034 83 76 0.0 0.0 0.00 0.00 0.00 60 1013.8
20260902133916 83 76 0.0 0.0 0.00 0.00 0.00 60 1013.8
20260902133830 83 76 0.0 0.0 0.00 0.00 0.00 60 1013.8
20260902133751 83 76 0.0 0.0 0.00 0.00 0.00 60 1013.8
20260902133639 83 76 0.0 0.0 0.00 0.00 0.00 60 1013.8
20260902133521 83 76 0.0 0.0 0.00 0.00 0.00 59 1013.8
20260902133443 83 76 0.0 0.0 0.00 0.00 0.00 59 1013.8
20260902133331 83 76 0.0 0.0 0.00 0.00 0.00 59 1013.8
20260902133231 83 76 0.0 0.0 0.00 0.00 0.00 59 1013.8
20260902133159 83 76 0.0 0.0 0.00 0.00 0.00 59 1013.8
20260902133021 83 76 0.0 0.0 0.00 0.00 0.00 59 1013.7
20260902132923 83 76 0.0 0.0 0.00 0.00 0.00 58 1013.7
20260902132833 83 76 0.0 0.0 0.00 0.00 0.00 58 1013.7
20260902132734 83 76 0.0 0.0 0.00 0.00 0.00 58 1013.7
20260902132641 83 76 0.0 0.0 0.00 0.00 0.00 58 1013.7
20260902132521 83 76 0.0 0.0 0.00 0.00 0.00 58 1013.6
20260902132420 83 76 0.0 0.0 0.00 0.00 0.00 57 1013.7
20260902132335 83 76 0.0 0.0 0.00 0.00 0.00 57 1013.7
20260902132235 83 76 0.0 0.0 0.00 0.00 0.00 57 1013.6
20260902132202 83 76 0.0 0.0 0.00 0.00 0.00 57 1013.6
20260902132020 83 76 0.0 0.0 0.00 0.00 0.00 57 1013.5
20260902131930 84 76 0.0 0.0 0.00 0.00 0.00 57 1013.5
20260902131833 84 76 0.0 0.0 0.00 0.00 0.00 57 1013.5
20260902131800 84 76 0.0 0.0 0.00 0.00 0.00 56 1013.5
20260902131624 84 76 0.0 1.0 0.00 0.00 0.00 56 1013.4
20260902131525 84 76 0.0 1.0 0.00 0.00 0.00 56 1013.4
20260902131427 84 76 0.0 1.0 0.00 0.00 0.00 56 1013.5
20260902131336 84 76 0.0 1.0 0.00 0.00 0.00 56 1013.5
20260902131237 84 76 0.0 3.0 0.00 0.00 0.00 55 1013.5
20260902131144 84 76 0.0 3.0 0.00 0.00 0.00 55 1013.5
20260902131035 84 76 0.0 3.0 0.00 0.00 0.00 55 1013.5
20260902130919 84 76 0.0 3.0 0.00 0.00 0.00 55 1013.5
20260902130840 84 75 0.0 3.0 0.00 0.00 0.00 54 1013.6
20260902130727 84 111 0.0 3.0 0.00 0.00 0.00 54 1013.5
20260902130648 85 111 0.0 3.0 0.00 0.00 0.00 53 1013.5
20260902130556 85 111 0.0 3.0 0.00 0.00 0.00 53 1013.5
20260902130434 85 111 1.0 3.0 0.00 0.00 0.00 53 1013.5
20260902130344 85 111 1.0 3.0 0.00 0.00 0.00 52 1013.5
20260902130225 85 111 1.0 2.0 0.00 0.00 0.00 51 1013.5
20260902130131 85 111 0.0 2.0 0.00 0.00 0.00 51 1013.5
20260902130030 85 111 0.0 1.0 0.00 0.00 0.00 51 1013.5
20260902125919 86 111 0.0 1.0 0.00 0.00 0.00 51 1013.4
20260902125820 86 111 0.0 2.0 0.00 0.00 0.00 50 1013.3
20260902125751 86 111 0.0 2.0 0.00 0.00 0.00 50 1013.3
20260902125637 86 111 0.0 2.0 0.00 0.00 0.00 50 1013.3
20260902125538 86 111 0.0 2.0 0.00 0.00 0.00 50 1013.4
20260902125428 86 111 0.0 2.0 0.00 0.00 0.00 50 1013.4
20260902125327 86 111 0.0 2.0 0.00 0.00 0.00 50 1013.3
20260902125237 86 111 0.0 2.0 0.00 0.00 0.00 50 1013.3
20260902125119 86 111 0.0 2.0 0.00 0.00 0.00 49 1013.4
20260902125038 87 111 0.0 3.0 0.00 0.00 0.00 49 1013.4
20260902124927 87 111 0.0 3.0 0.00 0.00 0.00 49 1013.4
20260902124827 87 111 0.0 3.0 0.00 0.00 0.00 49 1013.4
20260902124730 87 111 0.0 3.0 0.00 0.00 0.00 49 1013.4
20260902124640 87 111 0.0 4.0 0.00 0.00 0.00 49 1013.3
20260902124539 87 111 1.0 4.0 0.00 0.00 0.00 49 1013.3
20260902124424 87 111 1.0 4.0 0.00 0.00 0.00 49 1013.3
20260902124355 87 111 1.0 4.0 0.00 0.00 0.00 49 1013.3
20260902124235 87 111 1.0 4.0 0.00 0.00 0.00 49 1013.2
20260902124117 87 111 1.0 4.0 0.00 0.00 0.00 49 1013.1
20260902124022 87 111 1.0 4.0 0.00 0.00 0.00 49 1013.1
20260902123953 87 111 1.0 4.0 0.00 0.00 0.00 49 1013.1
20260902123833 87 111 2.0 4.0 0.00 0.00 0.00 49 1013.1
20260902123741 87 111 2.0 4.0 0.00 0.00 0.00 49 1013.1
20260902123622 87 111 1.0 4.0 0.00 0.00 0.00 49 1013.1
20260902123522 87 111 0.0 4.0 0.00 0.00 0.00 49 1013.0
20260902123425 87 111 0.0 4.0 0.00 0.00 0.00 49 1013.1
20260902123318 87 111 1.0 4.0 0.00 0.00 0.00 48 1013.1
20260902123220 87 111 1.0 4.0 0.00 0.00 0.00 48 1013.1
20260902123121 87 111 1.0 4.0 0.00 0.00 0.00 48 1013.1
20260902123032 87 111 2.0 4.0 0.00 0.00 0.00 48 1013.1
20260902122933 87 111 2.0 4.0 0.00 0.00 0.00 48 1013.0
20260902122819 87 111 2.0 4.0 0.00 0.00 0.00 48 1013.1
20260902122639 87 111 2.0 4.0 0.00 0.00 0.00 48 1013.1
20260902122522 87 111 2.0 4.0 0.00 0.00 0.00 48 1013.1
20260902122425 87 111 1.0 4.0 0.00 0.00 0.00 48 1013.1
20260902122325 87 111 1.0 4.0 0.00 0.00 0.00 48 1013.1
20260902122239 87 111 1.0 4.0 0.00 0.00 0.00 48 1013.1
20260902122143 87 111 1.0 2.0 0.00 0.00 0.00 48 1013.1
20260902122051 87 111 1.0 2.0 0.00 0.00 0.00 48 1013.1
20260902121930 87 111 0.0 3.0 0.00 0.00 0.00 49 1013.2
20260902121838 87 111 1.0 4.0 0.00 0.00 0.00 48 1013.2
20260902121720 87 111 1.0 4.0 0.00 0.00 0.00 48 1013.0
20260902121621 87 111 1.0 4.0 0.00 0.00 0.00 48 1013.1
20260902121525 87 111 0.0 4.0 0.00 0.00 0.00 48 1013.1
20260902121436 87 111 0.0 4.0 0.00 0.00 0.00 48 1013.1
20260902121317 87 111 0.0 4.0 0.00 0.00 0.00 49 1013.0
20260902121239 87 111 1.0 4.0 0.00 0.00 0.00 49 1013.0
20260902121127 87 111 2.0 4.0 0.00 0.00 0.00 49 1013.0
20260902121030 86 111 2.0 4.0 0.00 0.00 0.00 49 1013.0
20260902120920 86 111 0.0 4.0 0.00 0.00 0.00 49 1013.0
20260902120845 86 111 0.0 1.0 0.00 0.00 0.00 49 1012.9
20260902120733 86 111 0.0 1.0 0.00 0.00 0.00 49 1012.9
20260902120634 86 111 0.0 1.0 0.00 0.00 0.00 49 1012.9
20260902120517 86 111 0.0 0.0 0.00 0.00 0.00 49 1012.9
20260902120418 86 111 0.0 0.0 0.00 0.00 0.00 49 1012.8
20260902120327 86 111 0.0 0.0 0.00 0.00 0.00 49 1012.9
20260902120228 86 111 0.0 1.0 0.00 0.00 0.00 49 1012.9
20260902120141 86 111 0.0 1.0 0.00 0.00 0.00 49 1012.9
20260902120035 86 111 0.0 1.0 0.00 0.00 0.00 49 1012.8
20260902115925 86 111 0.0 1.0 0.00 0.00 0.00 49 1012.7
20260902115835 86 111 0.0 1.0 0.00 0.00 0.00 49 1012.7
20260902115718 86 111 0.0 1.0 0.00 0.00 0.00 49 1012.8
20260902115625 86 111 0.0 1.0 0.00 0.00 0.00 49 1012.7
20260902115526 86 111 0.0 1.0 0.00 0.00 0.00 49 1012.7
20260902115436 86 111 0.0 1.0 0.00 0.00 0.00 49 1012.7
20260902115318 86 111 0.0 1.0 0.00 0.00 0.00 49 1012.7
20260902115220 87 111 0.0 2.0 0.00 0.00 0.00 49 1012.8
20260902115122 87 111 0.0 2.0 0.00 0.00 0.00 49 1012.8
20260902115037 87 111 0.0 2.0 0.00 0.00 0.00 48 1012.8
20260902114917 87 111 0.0 2.0 0.00 0.00 0.00 48 1012.8
20260902114817 87 111 0.0 2.0 0.00 0.00 0.00 49 1012.9
20260902114725 87 111 0.0 2.0 0.00 0.00 0.00 48 1012.9
20260902114626 87 111 0.0 2.0 0.00 0.00 0.00 49 1012.8
20260902114530 87 111 0.0 2.0 0.00 0.00 0.00 48 1012.8
20260902114416 87 111 0.0 2.0 0.00 0.00 0.00 48 1012.7
20260902114346 87 111 0.0 2.0 0.00 0.00 0.00 48 1012.7
20260902114225 87 111 0.0 2.0 0.00 0.00 0.00 48 1012.8
20260902114134 87 111 0.0 2.0 0.00 0.00 0.00 48 1012.8
20260902114043 87 111 0.0 2.0 0.00 0.00 0.00 48 1012.7
20260902113923 87 111 0.0 3.0 0.00 0.00 0.00 49 1012.7
20260902113825 87 111 0.0 3.0 0.00 0.00 0.00 49 1012.7
20260902113734 87 111 0.0 3.0 0.00 0.00 0.00 49 1012.7
20260902113620 87 111 0.0 3.0 0.00 0.00 0.00 49 1012.6
20260902113521 87 111 1.0 4.0 0.00 0.00 0.00 49 1012.6
20260902113423 86 111 1.0 4.0 0.00 0.00 0.00 49 1012.6
20260902113333 86 111 0.0 4.0 0.00 0.00 0.00 49 1012.6
20260902113230 86 111 1.0 4.0 0.00 0.00 0.00 50 1012.7
20260902113117 86 111 1.0 4.0 0.00 0.00 0.00 50 1012.7
20260902113046 86 111 1.0 4.0 0.00 0.00 0.00 50 1012.7
20260902112926 86 111 1.0 4.0 0.00 0.00 0.00 50 1012.7
20260902112827 86 111 1.0 4.0 0.00 0.00 0.00 51 1012.7
20260902112737 85 111 2.0 4.0 0.00 0.00 0.00 51 1012.7
20260902112618 85 111 1.0 4.0 0.00 0.00 0.00 51 1012.8
20260902112538 85 111 0.0 4.0 0.00 0.00 0.00 52 1012.8
20260902112433 85 111 1.0 4.0 0.00 0.00 0.00 52 1012.8
20260902112334 85 111 1.0 4.0 0.00 0.00 0.00 51 1012.7
20260902112214 85 111 0.0 4.0 0.00 0.00 0.00 51 1012.7
20260902112141 85 111 0.0 4.0 0.00 0.00 0.00 51 1012.7
20260902112044 85 111 0.0 4.0 0.00 0.00 0.00 51 1012.7
20260902112014 85 111 1.0 4.0 0.00 0.00 0.00 51 1012.7
20260902111828 85 111 1.0 4.0 0.00 0.00 0.00 52 1012.6
20260902111739 85 111 0.0 2.0 0.00 0.00 0.00 52 1012.6
20260902111639 85 111 0.0 2.0 0.00 0.00 0.00 52 1012.6
20260902111527 85 111 0.0 2.0 0.00 0.00 0.00 52 1012.7
20260902111430 85 111 0.0 2.0 0.00 0.00 0.00 52 1012.7
20260902111333 85 111 0.0 2.0 0.00 0.00 0.00 51 1012.6
20260902111215 85 111 0.0 0.0 0.00 0.00 0.00 51 1012.6
20260902111124 85 111 0.0 1.0 0.00 0.00 0.00 51 1012.7
20260902111051 85 111 0.0 1.0 0.00 0.00 0.00 51 1012.7
20260902110939 85 111 0.0 1.0 0.00 0.00 0.00 51 1012.6
20260902110840 86 111 0.0 1.0 0.00 0.00 0.00 50 1012.6
20260902110638 86 111 0.0 1.0 0.00 0.00 0.00 50 1012.7
20260902110520 86 111 0.0 1.0 0.00 0.00 0.00 50 1012.6
20260902110426 86 111 0.0 1.0 0.00 0.00 0.00 50 1012.6
20260902110337 86 111 0.0 1.0 0.00 0.00 0.00 50 1012.6
20260902110238 86 111 0.0 1.0 0.00 0.00 0.00 50 1012.6
20260902110120 86 111 0.0 1.0 0.00 0.00 0.00 50 1012.5
20260902110034 86 111 0.0 1.0 0.00 0.00 0.00 50 1012.5
20260902105933 86 111 0.0 1.0 0.00 0.00 0.00 49 1012.6
20260902105819 86 111 0.0 1.0 0.00 0.00 0.00 50 1012.6
20260902105721 86 111 0.0 1.0 0.00 0.00 0.00 50 1012.5
20260902105623 86 111 0.0 1.0 0.00 0.00 0.00 50 1012.5
20260902105533 86 111 0.0 1.0 0.00 0.00 0.00 50 1012.5
20260902105434 86 111 0.0 1.0 0.00 0.00 0.00 50 1012.5
20260902105342 86 111 0.0 1.0 0.00 0.00 0.00 50 1012.5
20260902105243 86 111 0.0 0.0 0.00 0.00 0.00 49 1012.5
20260902105137 87 111 0.0 1.0 0.00 0.00 0.00 49 1012.5
20260902105019 87 111 0.0 2.0 0.00 0.00 0.00 49 1012.5
20260902104921 87 111 0.0 2.0 0.00 0.00 0.00 48 1012.5
20260902104823 87 111 0.0 2.0 0.00 0.00 0.00 48 1012.5
20260902104733 87 111 0.0 3.0 0.00 0.00 0.00 48 1012.5
20260902104618 87 111 0.0 3.0 0.00 0.00 0.00 48 1012.4
20260902104520 87 111 0.0 3.0 0.00 0.00 0.00 48 1012.5
20260902104423 87 111 0.0 3.0 0.00 0.00 0.00 48 1012.5
20260902104334 87 111 0.0 3.0 0.00 0.00 0.00 48 1012.5
20260902104255 87 111 0.0 3.0 0.00 0.00 0.00 48 1012.5
20260902104117 87 111 0.0 3.0 0.00 0.00 0.00 49 1012.6
20260902104027 87 111 1.0 3.0 0.00 0.00 0.00 49 1012.6
20260902103934 87 111 1.0 3.0 0.00 0.00 0.00 49 1012.6
20260902103817 87 111 0.0 0.0 0.00 0.00 0.00 49 1012.7
20260902103719 87 111 0.0 0.0 0.00 0.00 0.00 49 1012.7
20260902103629 87 111 0.0 0.0 0.00 0.00 0.00 49 1012.7
20260902103532 87 111 0.0 0.0 0.00 0.00 0.00 49 1012.7
20260902103418 87 111 0.0 0.0 0.00 0.00 0.00 49 1012.6
20260902103348 87 111 0.0 0.0 0.00 0.00 0.00 49 1012.7
20260902103227 87 111 0.0 0.0 0.00 0.00 0.00 49 1012.6
20260902103138 87 111 0.0 0.0 0.00 0.00 0.00 49 1012.6
20260902103021 87 111 0.0 0.0 0.00 0.00 0.00 49 1012.6
20260902102921 87 111 0.0 0.0 0.00 0.00 0.00 49 1012.7
20260902102824 86 111 0.0 0.0 0.00 0.00 0.00 50 1012.6
20260902102739 86 111 0.0 0.0 0.00 0.00 0.00 50 1012.6
20260902102621 87 111 0.0 0.0 0.00 0.00 0.00 50 1012.6
20260902102542 87 111 0.0 0.0 0.00 0.00 0.00 51 1012.6
20260902102429 86 111 0.0 0.0 0.00 0.00 0.00 50 1012.6
20260902102351 86 111 0.0 0.0 0.00 0.00 0.00 49 1012.5
20260902102237 86 111 0.0 0.0 0.00 0.00 0.00 49 1012.6
20260902102122 86 111 0.0 0.0 0.00 0.00 0.00 50 1012.6
20260902102024 87 111 0.0 0.0 0.00 0.00 0.00 50 1012.6
20260902101956 87 111 0.0 0.0 0.00 0.00 0.00 50 1012.6
20260902101855 87 111 0.0 0.0 0.00 0.00 0.00 50 1012.6
20260902101741 87 111 0.0 0.0 0.00 0.00 0.00 48 1012.6
20260902101618 87 111 0.0 0.0 0.00 0.00 0.00 48 1012.6
20260902101529 87 111 0.0 0.0 0.00 0.00 0.00 48 1012.6
20260902101430 87 111 0.0 0.0 0.00 0.00 0.00 49 1012.6
20260902101317 88 111 0.0 0.0 0.00 0.00 0.00 48 1012.6
20260902101219 88 111 0.0 0.0 0.00 0.00 0.00 47 1012.6
20260902101129 87 113 0.0 0.0 0.00 0.00 0.00 48 1012.6
20260902101032 87 360 0.0 0.0 0.00 0.00 0.00 48 1012.7
20260902100934 87 360 0.0 0.0 0.00 0.00 0.00 48 1012.6
20260902100818 87 360 0.0 0.0 0.00 0.00 0.00 48 1012.7
20260902100747 87 360 0.0 0.0 0.00 0.00 0.00 48 1012.7
20260902100530 88 360 0.0 0.0 0.00 0.00 0.00 49 1012.7
20260902100500 88 360 0.0 1.0 0.00 0.00 0.00 49 1012.8
20260902100322 88 360 0.0 3.0 0.00 0.00 0.00 47 1012.8
20260902100224 88 360 0.0 3.0 0.00 0.00 0.00 47 1012.8
20260902100125 88 360 0.0 3.0 0.00 0.00 0.00 47 1012.8
20260902100052 88 360 0.0 3.0 0.00 0.00 0.00 47 1012.8
20260902095920 88 360 0.0 3.0 0.00 0.00 0.00 46 1012.7
20260902095830 88 360 0.0 3.0 0.00 0.00 0.00 47 1012.7
20260902095733 88 360 0.0 3.0 0.00 0.00 0.00 47 1012.7
20260902095702 88 360 0.0 3.0 0.00 0.00 0.00 47 1012.6
20260902095523 88 360 0.0 0.0 0.00 0.00 0.00 47 1012.7
20260902095427 88 360 0.0 0.0 0.00 0.00 0.00 47 1012.7
20260902095329 88 360 0.0 0.0 0.00 0.00 0.00 47 1012.7
20260902095238 88 360 0.0 0.0 0.00 0.00 0.00 47 1012.6
20260902095120 88 360 0.0 1.0 0.00 0.00 0.00 47 1012.6
20260902095020 88 360 0.0 1.0 0.00 0.00 0.00 47 1012.6
20260902094930 88 360 0.0 1.0 0.00 0.00 0.00 47 1012.6
20260902094851 88 360 0.0 1.0 0.00 0.00 0.00 47 1012.5
20260902094724 88 360 0.0 1.0 0.00 0.00 0.00 47 1012.5
20260902094626 88 360 0.0 1.0 0.00 0.00 0.00 47 1012.5
20260902094529 88 360 0.0 1.0 0.00 0.00 0.00 47 1012.5
20260902094438 88 360 0.0 1.0 0.00 0.00 0.00 47 1012.5
20260902094321 88 360 0.0 1.0 0.00 0.00 0.00 47 1012.5
20260902094223 88 360 0.0 1.0 0.00 0.00 0.00 47 1012.5
20260902094129 88 360 0.0 1.0 0.00 0.00 0.00 47 1012.5
20260902094017 88 360 0.0 1.0 0.00 0.00 0.00 47 1012.6
20260902093917 88 360 0.0 1.0 0.00 0.00 0.00 47 1012.5
20260902093826 89 360 0.0 1.0 0.00 0.00 0.00 47 1012.4
20260902093729 88 360 0.0 1.0 0.00 0.00 0.00 47 1012.4
20260902093658 88 360 0.0 1.0 0.00 0.00 0.00 47 1012.5
20260902093539 89 360 0.0 1.0 0.00 0.00 0.00 47 1012.6
20260902093423 89 360 0.0 1.0 0.00 0.00 0.00 46 1012.6
20260902093334 89 360 0.0 1.0 0.00 0.00 0.00 46 1012.6
20260902093236 89 360 0.0 1.0 0.00 0.00 0.00 46 1012.6
20260902093116 89 360 0.0 1.0 0.00 0.00 0.00 46 1012.7
20260902093024 89 360 0.0 1.0 0.00 0.00 0.00 46 1012.7
20260902092926 89 360 0.0 2.0 0.00 0.00 0.00 46 1012.7
20260902092836 89 360 0.0 2.0 0.00 0.00 0.00 46 1012.7
20260902092721 89 360 0.0 2.0 0.00 0.00 0.00 46 1012.6
20260902092621 89 360 0.0 2.0 0.00 0.00 0.00 46 1012.6
20260902092549 89 360 0.0 2.0 0.00 0.00 0.00 46 1012.5
20260902092430 89 360 0.0 2.0 0.00 0.00 0.00 47 1012.5
20260902092340 89 360 0.0 2.0 0.00 0.00 0.00 47 1012.5
20260902092219 89 360 0.0 2.0 0.00 0.00 0.00 46 1012.5
20260902092125 89 360 0.0 2.0 0.00 0.00 0.00 47 1012.5
20260902092029 89 360 0.0 1.0 0.00 0.00 0.00 47 1012.5
20260902091938 89 360 0.0 1.0 0.00 0.00 0.00 46 1012.5
20260902091840 89 360 0.0 1.0 0.00 0.00 0.00 46 1012.5
20260902091749 89 360 0.0 1.0 0.00 0.00 0.00 46 1012.5
20260902091623 89 360 0.0 1.0 0.00 0.00 0.00 46 1012.5
20260902091524 89 360 0.0 1.0 0.00 0.00 0.00 46 1012.4
20260902091430 89 360 0.0 2.0 0.00 0.00 0.00 46 1012.4
20260902091338 89 360 0.0 2.0 0.00 0.00 0.00 46 1012.5
20260902091220 89 360 0.0 2.0 0.00 0.00 0.00 46 1012.6
20260902091122 89 360 0.0 2.0 0.00 0.00 0.00 46 1012.5
20260902091023 89 360 0.0 2.0 0.00 0.00 0.00 46 1012.6
20260902090917 89 360 0.0 2.0 0.00 0.00 0.00 46 1012.5
20260902090818 89 360 0.0 2.0 0.00 0.00 0.00 46 1012.5
20260902090720 90 360 0.0 2.0 0.00 0.00 0.00 46 1012.5
20260902090627 90 360 1.0 2.0 0.00 0.00 0.00 46 1012.6
20260902090529 90 360 0.0 2.0 0.00 0.00 0.00 46 1012.6
20260902090439 90 360 0.0 2.0 0.00 0.00 0.00 46 1012.6
20260902090321 90 360 0.0 2.0 0.00 0.00 0.00 46 1012.6
20260902090226 90 360 0.0 2.0 0.00 0.00 0.00 46 1012.6
20260902090129 90 360 0.0 2.0 0.00 0.00 0.00 46 1012.6
20260902090030 90 360 0.0 1.0 0.00 0.00 0.00 45 1012.6
20260902085919 90 360 0.0 1.0 0.00 0.00 0.00 45 1012.6
20260902085819 90 360 0.0 1.0 0.00 0.00 0.00 45 1012.5
20260902085726 90 360 0.0 5.0 0.00 0.00 0.00 45 1012.6
20260902085632 90 360 0.0 5.0 0.00 0.00 0.00 45 1012.6
20260902085515 90 360 0.0 5.0 0.00 0.00 0.00 45 1012.6
20260902085444 90 360 0.0 5.0 0.00 0.00 0.00 45 1012.5
20260902085325 90 360 0.0 5.0 0.00 0.00 0.00 45 1012.5
20260902085255 90 360 0.0 5.0 0.00 0.00 0.00 45 1012.5
20260902085115 90 360 0.0 5.0 0.00 0.00 0.00 45 1012.5
20260902085022 90 360 1.0 5.0 0.00 0.00 0.00 45 1012.5
20260902084924 90 360 1.0 5.0 0.00 0.00 0.00 45 1012.5
20260902084854 90 360 0.0 5.0 0.00 0.00 0.00 45 1012.5
20260902084716 90 360 0.0 5.0 0.00 0.00 0.00 44 1012.4
20260902084614 90 360 0.0 5.0 0.00 0.00 0.00 44 1012.4
20260902084524 91 360 0.0 5.0 0.00 0.00 0.00 44 1012.4
20260902084427 91 360 1.0 5.0 0.00 0.00 0.00 44 1012.4
20260902084339 91 360 2.0 5.0 0.00 0.00 0.00 44 1012.4
20260902084220 91 360 2.0 5.0 0.00 0.00 0.00 44 1012.4
20260902084130 91 360 1.0 4.0 0.00 0.00 0.00 44 1012.4
20260902084032 91 360 0.0 4.0 0.00 0.00 0.00 44 1012.4
20260902083934 91 360 1.0 3.0 0.00 0.00 0.00 44 1012.5
20260902083816 91 360 1.0 3.0 0.00 0.00 0.00 44 1012.5
20260902083730 91 360 0.0 3.0 0.00 0.00 0.00 44 1012.5
20260902083632 91 360 1.0 3.0 0.00 0.00 0.00 44 1012.5
20260902083532 91 360 1.0 3.0 0.00 0.00 0.00 44 1012.5
20260902083441 91 360 1.0 4.0 0.00 0.00 0.00 44 1012.6
20260902083343 91 360 2.0 5.0 0.00 0.00 0.00 44 1012.6
20260902083224 90 360 1.0 5.0 0.00 0.00 0.00 44 1012.6
20260902083135 91 360 1.0 5.0 0.00 0.00 0.00 44 1012.6
20260902083021 90 360 1.0 5.0 0.00 0.00 0.00 44 1012.6
20260902082921 90 360 1.0 5.0 0.00 0.00 0.00 45 1012.6
20260902082822 90 360 1.0 5.0 0.00 0.00 0.00 44 1012.7
20260902082730 90 360 1.0 5.0 0.00 0.00 0.00 45 1012.7
20260902082632 90 360 2.0 5.0 0.00 0.00 0.00 45 1012.7
20260902082518 90 360 2.0 5.0 0.00 0.00 0.00 45 1012.7
20260902082425 90 360 1.0 3.0 0.00 0.00 0.00 45 1012.7
20260902082335 90 360 0.0 3.0 0.00 0.00 0.00 45 1012.7
20260902082218 90 360 0.0 3.0 0.00 0.00 0.00 45 1012.7
20260902082139 90 360 0.0 3.0 0.00 0.00 0.00 45 1012.7
20260902082027 90 360 0.0 1.0 0.00 0.00 0.00 46 1012.6
20260902081927 90 360 0.0 1.0 0.00 0.00 0.00 46 1012.6
20260902081826 90 360 0.0 1.0 0.00 0.00 0.00 46 1012.7
20260902081740 90 360 0.0 1.0 0.00 0.00 0.00 46 1012.7
20260902081531 90 360 0.0 1.0 0.00 0.00 0.00 46 1012.7
20260902081440 90 360 0.0 1.0 0.00 0.00 0.00 46 1012.7
20260902081341 90 360 0.0 1.0 0.00 0.00 0.00 46 1012.7
20260902081220 90 360 0.0 1.0 0.00 0.00 0.00 46 1012.7
20260902081133 90 360 0.0 1.0 0.00 0.00 0.00 46 1012.7
20260902081034 90 360 0.0 1.0 0.00 0.00 0.00 46 1012.7
20260902080918 90 360 0.0 1.0 0.00 0.00 0.00 45 1012.7
20260902080820 90 360 0.0 1.0 0.00 0.00 0.00 45 1012.7
20260902080731 90 360 0.0 1.0 0.00 0.00 0.00 45 1012.7
20260902080633 90 360 0.0 1.0 0.00 0.00 0.00 45 1012.7
20260902080518 90 360 0.0 3.0 0.00 0.00 0.00 45 1012.7
20260902080420 90 360 0.0 3.0 0.00 0.00 0.00 45 1012.7
20260902080330 90 360 0.0 3.0 0.00 0.00 0.00 45 1012.7
20260902080233 90 360 0.0 3.0 0.00 0.00 0.00 45 1012.8
20260902080134 90 360 0.0 3.0 0.00 0.00 0.00 45 1012.8
20260902080034 90 360 0.0 3.0 0.00 0.00 0.00 46 1012.7
20260902075929 91 360 0.0 3.0 0.00 0.00 0.00 45 1012.8
20260902075832 91 360 0.0 3.0 0.00 0.00 0.00 45 1012.7
20260902075741 91 360 0.0 2.0 0.00 0.00 0.00 45 1012.7
20260902075622 91 360 0.0 2.0 0.00 0.00 0.00 45 1012.8
20260902075522 91 360 0.0 2.0 0.00 0.00 0.00 45 1012.7
20260902075432 91 360 0.0 2.0 0.00 0.00 0.00 45 1012.7
20260902075319 91 360 0.0 2.0 0.00 0.00 0.00 45 1012.7
20260902075133 91 360 0.0 2.0 0.00 0.00 0.00 45 1012.7
20260902075015 91 360 0.0 1.0 0.00 0.00 0.00 45 1012.6
20260902074918 90 360 0.0 1.0 0.00 0.00 0.00 46 1012.6
20260902074825 90 360 0.0 1.0 0.00 0.00 0.00 46 1012.6
20260902074727 90 360 0.0 1.0 0.00 0.00 0.00 46 1012.6
20260902074639 91 360 0.0 1.0 0.00 0.00 0.00 46 1012.6
20260902074542 91 360 0.0 1.0 0.00 0.00 0.00 46 1012.5
20260902074422 91 360 0.0 1.0 0.00 0.00 0.00 46 1012.5
20260902074332 91 360 0.0 1.0 0.00 0.00 0.00 46 1012.5
20260902074234 91 360 0.0 1.0 0.00 0.00 0.00 46 1012.5
20260902074115 91 360 0.0 1.0 0.00 0.00 0.00 46 1012.5
20260902074021 91 360 0.0 2.0 0.00 0.00 0.00 46 1012.6
20260902073951 91 360 0.0 2.0 0.00 0.00 0.00 46 1012.6
20260902073836 91 360 0.0 2.0 0.00 0.00 0.00 46 1012.6
20260902073716 91 360 0.0 2.0 0.00 0.00 0.00 45 1012.4
20260902073618 91 360 0.0 2.0 0.00 0.00 0.00 45 1012.4
20260902073518 91 360 0.0 2.0 0.00 0.00 0.00 45 1012.4
20260902073427 91 360 0.0 2.0 0.00 0.00 0.00 45 1012.5
20260902073334 91 360 0.0 3.0 0.00 0.00 0.00 45 1012.5
20260902073243 91 360 1.0 3.0 0.00 0.00 0.00 45 1012.5
20260902073143 91 360 1.0 3.0 0.00 0.00 0.00 45 1012.5
20260902073023 91 360 0.0 3.0 0.00 0.00 0.00 45 1012.5
20260902072933 91 360 0.0 3.0 0.00 0.00 0.00 45 1012.5
20260902072815 91 360 0.0 3.0 0.00 0.00 0.00 45 1012.6
20260902072720 91 360 1.0 3.0 0.00 0.00 0.00 45 1012.5
20260902072623 91 360 1.0 3.0 0.00 0.00 0.00 45 1012.5
20260902072534 91 360 1.0 3.0 0.00 0.00 0.00 45 1012.5
20260902072436 91 360 0.0 3.0 0.00 0.00 0.00 45 1012.6
20260902072318 91 360 0.0 0.0 0.00 0.00 0.00 45 1012.5
20260902072226 91 360 0.0 3.0 0.00 0.00 0.00 45 1012.6
20260902072133 91 360 0.0 3.0 0.00 0.00 0.00 45 1012.6
20260902072102 91 360 0.0 3.0 0.00 0.00 0.00 45 1012.5
20260902071921 91 360 0.0 4.0 0.00 0.00 0.00 45 1012.4
20260902071823 91 360 0.0 4.0 0.00 0.00 0.00 45 1012.4
20260902071754 91 360 0.0 4.0 0.00 0.00 0.00 45 1012.4
20260902071632 91 360 0.0 4.0 0.00 0.00 0.00 45 1012.4
20260902071534 91 360 1.0 4.0 0.00 0.00 0.00 45 1012.4
20260902071435 91 360 1.0 5.0 0.00 0.00 0.00 45 1012.3
20260902071333 92 360 1.0 5.0 0.00 0.00 0.00 45 1012.3
20260902071216 92 360 2.0 5.0 0.00 0.00 0.00 45 1012.3
20260902071125 92 360 2.0 5.0 0.00 0.00 0.00 45 1012.4
20260902071026 92 360 1.0 5.0 0.00 0.00 0.00 45 1012.3
20260902070929 92 360 1.0 5.0 0.00 0.00 0.00 45 1012.3
20260902070815 92 360 1.0 5.0 0.00 0.00 0.00 44 1012.3
20260902070724 92 360 2.0 5.0 0.00 0.00 0.00 44 1012.3
20260902070626 92 360 2.0 5.0 0.00 0.00 0.00 44 1012.3
20260902070530 92 360 2.0 5.0 0.00 0.00 0.00 44 1012.3
20260902070439 92 360 1.0 5.0 0.00 0.00 0.00 44 1012.3
20260902070321 92 360 1.0 5.0 0.00 0.00 0.00 44 1012.3
20260902070248 92 360 1.0 5.0 0.00 0.00 0.00 44 1012.3
20260902070136 92 360 2.0 5.0 0.00 0.00 0.00 44 1012.3
20260902070030 92 360 3.0 5.0 0.00 0.00 0.00 44 1012.3
20260902065922 92 360 3.0 5.0 0.00 0.00 0.00 44 1012.2
20260902065831 92 360 2.0 5.0 0.00 0.00 0.00 44 1012.2
20260902065732 92 360 1.0 4.0 0.00 0.00 0.00 44 1012.3
20260902065616 92 360 2.0 4.0 0.00 0.00 0.00 44 1012.3
20260902065519 92 360 2.0 4.0 0.00 0.00 0.00 44 1012.3
20260902065430 92 360 2.0 4.0 0.00 0.00 0.00 44 1012.3
20260902065332 92 360 1.0 4.0 0.00 0.00 0.00 44 1012.2
20260902065301 92 360 1.0 4.0 0.00 0.00 0.00 44 1012.2
20260902065122 92 360 0.0 4.0 0.00 0.00 0.00 44 1012.3
20260902065030 92 360 1.0 4.0 0.00 0.00 0.00 44 1012.3
20260902064933 92 360 1.0 4.0 0.00 0.00 0.00 44 1012.2
20260902064841 92 360 1.0 4.0 0.00 0.00 0.00 44 1012.1
20260902064722 92 360 1.0 4.0 0.00 0.00 0.00 44 1012.2
20260902064625 92 360 1.0 3.0 0.00 0.00 0.00 44 1012.2
20260902064527 92 360 1.0 4.0 0.00 0.00 0.00 45 1012.2
20260902064441 92 360 1.0 4.0 0.00 0.00 0.00 45 1012.2
20260902064323 92 360 0.0 4.0 0.00 0.00 0.00 45 1012.3
20260902064254 92 360 0.0 4.0 0.00 0.00 0.00 45 1012.3
20260902064055 92 360 0.0 4.0 0.00 0.00 0.00 45 1012.3
20260902064003 92 360 1.0 4.0 0.00 0.00 0.00 45 1012.2
20260902063830 92 360 1.0 4.0 0.00 0.00 0.00 45 1012.2
20260902063633 92 360 1.0 4.0 0.00 0.00 0.00 45 1012.2
20260902063516 92 360 1.0 5.0 0.00 0.00 0.00 45 1012.1
20260902063319 92 360 1.0 6.0 0.00 0.00 0.00 45 1012.2
20260902063222 92 360 2.0 6.0 0.00 0.00 0.00 45 1012.3
20260902063124 92 360 2.0 6.0 0.00 0.00 0.00 45 1012.2
20260902063035 91 360 2.0 6.0 0.00 0.00 0.00 45 1012.2
20260902062917 91 360 1.0 6.0 0.00 0.00 0.00 45 1012.3
20260902062841 91 360 2.0 6.0 0.00 0.00 0.00 46 1012.4
20260902062730 91 360 3.0 6.0 0.00 0.00 0.00 46 1012.4
20260902062633 91 360 1.0 6.0 0.00 0.00 0.00 46 1012.4
20260902062540 91 360 0.0 3.0 0.00 0.00 0.00 46 1012.4
20260902062423 91 360 0.0 1.0 0.00 0.00 0.00 46 1012.4
20260902062325 91 360 0.0 1.0 0.00 0.00 0.00 46 1012.4
20260902062227 91 360 0.0 2.0 0.00 0.00 0.00 46 1012.4
20260902062121 91 360 0.0 2.0 0.00 0.00 0.00 46 1012.4
20260902062023 91 360 0.0 2.0 0.00 0.00 0.00 46 1012.3
20260902061925 91 360 0.0 2.0 0.00 0.00 0.00 46 1012.4
20260902061835 91 360 0.0 3.0 0.00 0.00 0.00 46 1012.4
20260902061718 91 360 0.0 3.0 0.00 0.00 0.00 45 1012.4
20260902061625 91 360 0.0 3.0 0.00 0.00 0.00 45 1012.3
20260902061526 91 360 0.0 3.0 0.00 0.00 0.00 45 1012.3
20260902061457 91 360 1.0 3.0 0.00 0.00 0.00 45 1012.3
20260902061403 91 360 1.0 3.0 0.00 0.00 0.00 45 1012.3
20260902061259 91 360 0.0 3.0 0.00 0.00 0.00 45 1012.4
20260902061146 91 360 1.0 3.0 0.00 0.00 0.00 45 1012.3
20260902061055 91 360 1.0 3.0 0.00 0.00 0.00 45 1012.3
20260902060954 91 360 0.0 3.0 0.00 0.00 0.00 45 1012.4
20260902060815 91 360 1.0 3.0 0.00 0.00 0.00 46 1012.4
20260902060730 91 360 2.0 3.0 0.00 0.00 0.00 46 1012.4
20260902060633 91 360 2.0 3.0 0.00 0.00 0.00 46 1012.4
20260902060542 91 360 1.0 3.0 0.00 0.00 0.00 46 1012.4
20260902060414 91 360 0.0 3.0 0.00 0.00 0.00 47 1012.4
20260902060325 91 360 0.0 3.0 0.00 0.00 0.00 47 1012.4
20260902060226 91 360 0.0 3.0 0.00 0.00 0.00 47 1012.4
20260902060118 91 360 0.0 3.0 0.00 0.00 0.00 47 1012.3
20260902060032 91 360 0.0 3.0 0.00 0.00 0.00 47 1012.3
20260902055922 91 360 1.0 3.0 0.00 0.00 0.00 47 1012.3
20260902055832 91 360 1.0 3.0 0.00 0.00 0.00 47 1012.3
20260902055733 91 360 0.0 3.0 0.00 0.00 0.00 47 1012.3
20260902055616 91 360 0.0 3.0 0.00 0.00 0.00 47 1012.3
20260902055522 91 360 1.0 3.0 0.00 0.00 0.00 47 1012.3
20260902055433 91 360 1.0 3.0 0.00 0.00 0.00 47 1012.3
20260902055334 91 360 1.0 3.0 0.00 0.00 0.00 47 1012.3
20260902055215 91 360 1.0 3.0 0.00 0.00 0.00 47 1012.4
20260902055143 91 360 1.0 3.0 0.00 0.00 0.00 47 1012.4
20260902055053 91 360 1.0 3.0 0.00 0.00 0.00 47 1012.4
20260902054933 91 360 1.0 3.0 0.00 0.00 0.00 47 1012.3
20260902054817 91 360 0.0 3.0 0.00 0.00 0.00 47 1012.3
20260902054719 91 360 0.0 3.0 0.00 0.00 0.00 47 1012.3
20260902054629 91 360 1.0 3.0 0.00 0.00 0.00 47 1012.4
20260902054530 91 360 1.0 3.0 0.00 0.00 0.00 47 1012.4
20260902054433 91 360 1.0 3.0 0.00 0.00 0.00 47 1012.4
20260902054316 91 360 1.0 3.0 0.00 0.00 0.00 47 1012.4
20260902054229 91 360 1.0 3.0 0.00 0.00 0.00 47 1012.2
20260902054133 91 360 1.0 3.0 0.00 0.00 0.00 47 1012.2
20260902054016 91 360 1.0 3.0 0.00 0.00 0.00 47 1012.1
20260902053918 91 360 1.0 3.0 0.00 0.00 0.00 47 1012.1
20260902053827 91 360 1.0 3.0 0.00 0.00 0.00 47 1012.0
20260902053727 91 360 2.0 3.0 0.00 0.00 0.00 47 1012.0
20260902053641 91 360 2.0 3.0 0.00 0.00 0.00 47 1012.0
20260902053543 91 360 1.0 3.0 0.00 0.00 0.00 47 1012.0
20260902053433 91 360 1.0 3.0 0.00 0.00 0.00 47 1012.0
20260902053333 91 360 0.0 4.0 0.00 0.00 0.00 47 1012.1
20260902053224 91 360 0.0 4.0 0.00 0.00 0.00 47 1012.2
20260902053155 91 360 1.0 4.0 0.00 0.00 0.00 47 1012.2
20260902053016 91 360 0.0 4.0 0.00 0.00 0.00 47 1012.2
20260902052922 91 360 0.0 4.0 0.00 0.00 0.00 47 1012.2
20260902052833 91 360 0.0 4.0 0.00 0.00 0.00 47 1012.2
20260902052734 91 360 1.0 4.0 0.00 0.00 0.00 47 1012.2
20260902052635 91 360 2.0 4.0 0.00 0.00 0.00 47 1012.2
20260902052543 90 360 2.0 4.0 0.00 0.00 0.00 47 1012.2
20260902052444 90 360 1.0 3.0 0.00 0.00 0.00 47 1012.3
20260902052338 90 360 1.0 3.0 0.00 0.00 0.00 48 1012.3
20260902052239 90 360 1.0 3.0 0.00 0.00 0.00 48 1012.3
20260902052122 90 360 1.0 3.0 0.00 0.00 0.00 48 1012.2
20260902052024 90 360 1.0 3.0 0.00 0.00 0.00 48 1012.3
20260902051933 90 360 1.0 3.0 0.00 0.00 0.00 48 1012.3
20260902051833 90 360 1.0 3.0 0.00 0.00 0.00 48 1012.3
20260902051718 90 360 1.0 3.0 0.00 0.00 0.00 47 1012.3
20260902051628 91 360 0.0 4.0 0.00 0.00 0.00 47 1012.3
20260902051533 91 360 0.0 4.0 0.00 0.00 0.00 47 1012.3
20260902051500 91 360 1.0 4.0 0.00 0.00 0.00 47 1012.2
20260902051340 91 360 1.0 4.0 0.00 0.00 0.00 47 1012.3
20260902051124 91 360 1.0 4.0 0.00 0.00 0.00 47 1012.3
20260902051036 91 360 0.0 4.0 0.00 0.00 0.00 47 1012.3
20260902050919 91 360 1.0 4.0 0.00 0.00 0.00 47 1012.3
20260902050821 91 360 1.0 4.0 0.00 0.00 0.00 46 1012.3
20260902050724 91 360 0.0 3.0 0.00 0.00 0.00 47 1012.3
20260902050634 91 360 0.0 0.0 0.00 0.00 0.00 47 1012.3
20260902050534 91 360 0.0 0.0 0.00 0.00 0.00 46 1012.2
20260902050415 91 360 0.0 0.0 0.00 0.00 0.00 46 1012.2
20260902050351 91 360 0.0 0.0 0.00 0.00 0.00 46 1012.2
20260902050320 91 360 0.0 0.0 0.00 0.00 0.00 46 1012.2
20260902050030 91 360 0.0 3.0 0.00 0.00 0.00 46 1012.1
20260902045921 91 360 0.0 3.0 0.00 0.00 0.00 46 1012.2
20260902045823 91 360 0.0 3.0 0.00 0.00 0.00 46 1012.2
20260902045733 91 360 0.0 3.0 0.00 0.00 0.00 46 1012.2
20260902045617 91 360 0.0 3.0 0.00 0.00 0.00 46 1012.2
20260902045519 92 360 0.0 3.0 0.00 0.00 0.00 46 1012.2
20260902045422 92 360 1.0 3.0 0.00 0.00 0.00 45 1012.2
20260902045333 92 360 1.0 3.0 0.00 0.00 0.00 45 1012.2
20260902045234 92 360 1.0 3.0 0.00 0.00 0.00 45 1012.1
20260902045144 92 360 1.0 3.0 0.00 0.00 0.00 45 1012.2
20260902045027 92 360 2.0 3.0 0.00 0.00 0.00 45 1012.2
20260902044929 92 360 1.0 3.0 0.00 0.00 0.00 45 1012.1
20260902044830 92 360 1.0 3.0 0.00 0.00 0.00 45 1012.2
20260902044716 92 360 1.0 3.0 0.00 0.00 0.00 45 1012.2
20260902044618 92 360 1.0 3.0 0.00 0.00 0.00 45 1012.2
20260902044519 92 360 1.0 3.0 0.00 0.00 0.00 45 1012.2
20260902044433 92 360 1.0 3.0 0.00 0.00 0.00 45 1012.2
20260902044334 92 360 1.0 3.0 0.00 0.00 0.00 45 1012.3
20260902044234 92 360 1.0 3.0 0.00 0.00 0.00 45 1012.2
20260902044144 92 360 1.0 3.0 0.00 0.00 0.00 45 1012.2
20260902044024 92 360 1.0 4.0 0.00 0.00 0.00 44 1012.1
20260902043934 92 360 2.0 4.0 0.00 0.00 0.00 44 1012.1
20260902043817 92 360 1.0 4.0 0.00 0.00 0.00 44 1012.1
20260902043719 92 360 1.0 4.0 0.00 0.00 0.00 44 1012.1
20260902043620 92 360 1.0 4.0 0.00 0.00 0.00 44 1012.1
20260902043527 92 360 0.0 4.0 0.00 0.00 0.00 44 1012.0
20260902043428 92 360 0.0 4.0 0.00 0.00 0.00 44 1012.0
20260902043328 92 360 1.0 4.0 0.00 0.00 0.00 45 1012.0
20260902043238 92 360 2.0 4.0 0.00 0.00 0.00 44 1012.0
20260902043122 92 360 1.0 3.0 0.00 0.00 0.00 44 1011.9
20260902043023 92 360 1.0 3.0 0.00 0.00 0.00 44 1011.9
20260902042925 92 360 1.0 3.0 0.00 0.00 0.00 44 1011.8
20260902042836 92 360 0.0 3.0 0.00 0.00 0.00 44 1011.8
20260902042718 92 360 0.0 3.0 0.00 0.00 0.00 44 1011.8
20260902042622 92 360 0.0 3.0 0.00 0.00 0.00 44 1011.7
20260902042533 92 360 1.0 3.0 0.00 0.00 0.00 44 1011.7
20260902042434 92 360 1.0 3.0 0.00 0.00 0.00 44 1011.7
20260902042403 92 360 1.0 3.0 0.00 0.00 0.00 44 1011.7
20260902042244 92 360 1.0 4.0 0.00 0.00 0.00 44 1011.7
20260902042124 92 360 1.0 4.0 0.00 0.00 0.00 44 1011.7
20260902042033 92 360 1.0 4.0 0.00 0.00 0.00 44 1011.7
20260902041918 93 360 1.0 4.0 0.00 0.00 0.00 44 1011.7
20260902041825 93 360 1.0 4.0 0.00 0.00 0.00 44 1011.7
20260902041747 93 360 1.0 4.0 0.00 0.00 0.00 44 1011.7
20260902041652 93 360 1.0 4.0 0.00 0.00 0.00 44 1011.6
20260902041540 93 360 1.0 4.0 0.00 0.00 0.00 44 1011.6
20260902041442 93 360 1.0 3.0 0.00 0.00 0.00 44 1011.7
20260902041328 93 360 2.0 3.0 0.00 0.00 0.00 44 1011.7
20260902041229 93 360 1.0 3.0 0.00 0.00 0.00 44 1011.7
20260902041158 93 360 1.0 3.0 0.00 0.00 0.00 44 1011.7
20260902041042 93 360 1.0 3.0 0.00 0.00 0.00 44 1011.7
20260902040950 93 360 1.0 3.0 0.00 0.00 0.00 44 1011.7
20260902040830 93 360 1.0 3.0 0.00 0.00 0.00 44 1011.7
20260902040741 93 360 1.0 3.0 0.00 0.00 0.00 44 1011.7
20260902040623 93 360 1.0 3.0 0.00 0.00 0.00 44 1011.7
20260902040545 93 360 2.0 3.0 0.00 0.00 0.00 44 1011.7
20260902040417 93 360 2.0 3.0 0.00 0.00 0.00 44 1011.6
20260902040330 93 360 2.0 3.0 0.00 0.00 0.00 44 1011.6
20260902040233 93 360 2.0 4.0 0.00 0.00 0.00 44 1011.6
20260902040140 93 360 2.0 4.0 0.00 0.00 0.00 44 1011.6
20260902040033 93 360 2.0 4.0 0.00 0.00 0.00 44 1011.6
20260902035922 93 360 2.0 4.0 0.00 0.00 0.00 43 1011.5
20260902035852 93 360 2.0 4.0 0.00 0.00 0.00 43 1011.5
20260902035619 93 360 1.0 4.0 0.00 0.00 0.00 43 1011.6
20260902035529 93 360 2.0 4.0 0.00 0.00 0.00 43 1011.6
20260902035430 93 360 1.0 4.0 0.00 0.00 0.00 43 1011.5
20260902035357 93 360 1.0 3.0 0.00 0.00 0.00 43 1011.5
20260902035219 93 360 2.0 3.0 0.00 0.00 0.00 43 1011.4
20260902035119 93 360 1.0 3.0 0.00 0.00 0.00 43 1011.4
20260902035024 93 360 1.0 3.0 0.00 0.00 0.00 44 1011.4
20260902034935 93 360 1.0 3.0 0.00 0.00 0.00 44 1011.4
20260902034817 94 360 1.0 3.0 0.00 0.00 0.00 44 1011.4
20260902034740 94 360 1.0 3.0 0.00 0.00 0.00 43 1011.4
20260902034626 94 360 1.0 3.0 0.00 0.00 0.00 43 1011.4
20260902034526 94 360 1.0 3.0 0.00 0.00 0.00 43 1011.4
20260902034435 94 360 1.0 3.0 0.00 0.00 0.00 43 1011.4
20260902034322 94 360 0.0 3.0 0.00 0.00 0.00 43 1011.4
20260902034229 94 360 0.0 3.0 0.00 0.00 0.00 43 1011.5
20260902034130 94 360 0.0 3.0 0.00 0.00 0.00 43 1011.4
20260902034039 94 360 0.0 3.0 0.00 0.00 0.00 43 1011.4
20260902033921 94 360 0.0 3.0 0.00 0.00 0.00 43 1011.4
20260902033822 94 360 0.0 3.0 0.00 0.00 0.00 43 1011.4
20260902033729 94 360 1.0 3.0 0.00 0.00 0.00 43 1011.3
20260902033638 94 360 1.0 3.0 0.00 0.00 0.00 43 1011.3
20260902033519 94 360 1.0 3.0 0.00 0.00 0.00 43 1011.3
20260902033422 94 360 1.0 3.0 0.00 0.00 0.00 43 1011.3
20260902033319 94 360 1.0 3.0 0.00 0.00 0.00 43 1011.2
20260902033248 94 360 1.0 3.0 0.00 0.00 0.00 43 1011.2
20260902033127 94 360 1.0 4.0 0.00 0.00 0.00 43 1011.1
20260902033041 94 360 1.0 4.0 0.00 0.00 0.00 43 1011.1
20260902032923 94 360 1.0 4.0 0.00 0.00 0.00 43 1011.1
20260902032824 94 360 1.0 4.0 0.00 0.00 0.00 42 1011.1
20260902032733 94 360 1.0 4.0 0.00 0.00 0.00 42 1011.1
20260902032631 94 360 1.0 4.0 0.00 0.00 0.00 42 1011.1
20260902032533 94 360 1.0 4.0 0.00 0.00 0.00 42 1011.1
20260902032418 94 360 1.0 4.0 0.00 0.00 0.00 42 1011.1
20260902032348 94 360 1.0 4.0 0.00 0.00 0.00 42 1011.0
20260902032228 94 360 0.0 2.0 0.00 0.00 0.00 42 1011.1
20260902032138 94 360 0.0 2.0 0.00 0.00 0.00 42 1011.1
20260902032020 95 360 1.0 2.0 0.00 0.00 0.00 42 1011.1
20260902031923 95 360 1.0 2.0 0.00 0.00 0.00 42 1011.1
20260902031836 95 360 0.0 3.0 0.00 0.00 0.00 42 1011.1
20260902031718 95 360 0.0 3.0 0.00 0.00 0.00 42 1011.0
20260902031620 95 360 0.0 3.0 0.00 0.00 0.00 42 1011.0
20260902031528 95 360 0.0 3.0 0.00 0.00 0.00 42 1011.0
20260902031430 95 360 0.0 3.0 0.00 0.00 0.00 41 1011.0
20260902031340 95 360 0.0 3.0 0.00 0.00 0.00 41 1011.0
20260902031226 95 360 0.0 3.0 0.00 0.00 0.00 41 1011.0
20260902031129 95 360 1.0 3.0 0.00 0.00 0.00 41 1011.0
20260902030924 95 360 1.0 3.0 0.00 0.00 0.00 41 1010.8
20260902030834 95 360 1.0 3.0 0.00 0.00 0.00 41 1010.8
20260902030736 95 360 1.0 3.0 0.00 0.00 0.00 41 1010.8
20260902030616 95 360 1.0 3.0 0.00 0.00 0.00 41 1010.8
20260902030525 95 360 1.0 3.0 0.00 0.00 0.00 41 1010.8
20260902030433 95 360 1.0 3.0 0.00 0.00 0.00 41 1010.8
20260902030334 95 360 1.0 3.0 0.00 0.00 0.00 41 1010.7
20260902030243 95 360 1.0 3.0 0.00 0.00 0.00 41 1010.7
20260902030123 95 360 1.0 3.0 0.00 0.00 0.00 41 1010.7
20260902030105 95 360 1.0 3.0 0.00 0.00 0.00 41 1010.7
20260902030002 95 360 1.0 3.0 0.00 0.00 0.00 41 1010.8
20260902025821 95 360 1.0 3.0 0.00 0.00 0.00 41 1010.6
20260902025756 95 360 1.0 3.0 0.00 0.00 0.00 41 1010.6
20260902025616 95 360 1.0 3.0 0.00 0.00 0.00 41 1010.6
20260902025518 95 360 1.0 3.0 0.00 0.00 0.00 41 1010.6
20260902025421 95 360 1.0 3.0 0.00 0.00 0.00 41 1010.6
20260902025330 95 360 0.0 3.0 0.00 0.00 0.00 41 1010.6
20260902025229 95 360 0.0 3.0 0.00 0.00 0.00 41 1010.5
20260902025138 95 360 0.0 3.0 0.00 0.00 0.00 41 1010.5
20260902025023 95 360 0.0 3.0 0.00 0.00 0.00 41 1010.5
20260902024925 95 360 0.0 3.0 0.00 0.00 0.00 41 1010.4
20260902024825 96 360 0.0 3.0 0.00 0.00 0.00 41 1010.4
20260902024755 96 360 0.0 3.0 0.00 0.00 0.00 41 1010.4
20260902024616 96 360 1.0 3.0 0.00 0.00 0.00 41 1010.4
20260902024523 96 360 1.0 3.0 0.00 0.00 0.00 41 1010.4
20260902024429 96 360 1.0 3.0 0.00 0.00 0.00 41 1010.3
20260902024341 96 360 1.0 3.0 0.00 0.00 0.00 40 1010.3
20260902024241 96 360 1.0 3.0 0.00 0.00 0.00 40 1010.3
20260902024123 96 360 0.0 3.0 0.00 0.00 0.00 40 1010.3
20260902024054 96 360 0.0 1.0 0.00 0.00 0.00 40 1010.3
20260902023933 96 360 0.0 3.0 0.00 0.00 0.00 40 1010.3
20260902023818 96 360 0.0 3.0 0.00 0.00 0.00 40 1010.4
20260902023720 96 360 0.0 3.0 0.00 0.00 0.00 40 1010.4
20260902023629 96 360 0.0 3.0 0.00 0.00 0.00 40 1010.4
20260902023529 96 360 0.0 3.0 0.00 0.00 0.00 40 1010.3
20260902023439 96 360 0.0 3.0 0.00 0.00 0.00 40 1010.3
20260902023321 96 360 1.0 3.0 0.00 0.00 0.00 40 1010.4
20260902023221 96 360 1.0 3.0 0.00 0.00 0.00 40 1010.4
20260902023135 96 360 1.0 3.0 0.00 0.00 0.00 40 1010.4
20260902023016 96 360 1.0 3.0 0.00 0.00 0.00 40 1010.4
20260902022916 96 360 1.0 3.0 0.00 0.00 0.00 39 1010.4
20260902022817 96 360 1.0 3.0 0.00 0.00 0.00 39 1010.4
20260902022725 96 360 1.0 3.0 0.00 0.00 0.00 39 1010.4
20260902022646 96 360 1.0 3.0 0.00 0.00 0.00 39 1010.3
20260902022518 97 360 1.0 3.0 0.00 0.00 0.00 39 1010.4
20260902022420 97 360 1.0 2.0 0.00 0.00 0.00 39 1010.4
20260902022350 97 360 0.0 2.0 0.00 0.00 0.00 39 1010.3
20260902022233 97 360 0.0 2.0 0.00 0.00 0.00 39 1010.3
20260902022139 97 360 1.0 2.0 0.00 0.00 0.00 38 1010.3
20260902022040 97 360 0.0 2.0 0.00 0.00 0.00 38 1010.4
20260902021920 97 360 0.0 2.0 0.00 0.00 0.00 38 1010.2
20260902021829 97 360 0.0 2.0 0.00 0.00 0.00 38 1010.2
20260902021734 97 360 0.0 2.0 0.00 0.00 0.00 38 1010.2
20260902021616 97 360 0.0 2.0 0.00 0.00 0.00 38 1010.2
20260902021545 97 360 0.0 3.0 0.00 0.00 0.00 38 1010.2
20260902021426 97 360 1.0 3.0 0.00 0.00 0.00 38 1010.2
20260902021354 97 360 1.0 3.0 0.00 0.00 0.00 38 1010.2
20260902021233 97 360 0.0 3.0 0.00 0.00 0.00 38 1010.3
20260902021122 97 360 0.0 3.0 0.00 0.00 0.00 38 1010.3
20260902021029 97 360 0.0 3.0 0.00 0.00 0.00 38 1010.3
20260902020950 97 360 0.0 3.0 0.00 0.00 0.00 38 1010.3
20260902020826 97 360 1.0 3.0 0.00 0.00 0.00 38 1010.2
20260902020727 97 360 1.0 3.0 0.00 0.00 0.00 38 1010.2
20260902020637 97 360 0.0 3.0 0.00 0.00 0.00 38 1010.2
20260902020518 97 360 1.0 3.0 0.00 0.00 0.00 37 1010.2
20260902020426 97 360 1.0 4.0 0.00 0.00 0.00 37 1010.2
20260902020348 97 360 0.0 4.0 0.00 0.00 0.00 37 1010.3
20260902020217 97 360 1.0 4.0 0.00 0.00 0.00 37 1010.2
20260902020139 97 360 0.0 4.0 0.00 0.00 0.00 37 1010.1
20260902020040 97 360 1.0 4.0 0.00 0.00 0.00 37 1010.1
20260902015950 97 360 1.0 4.0 0.00 0.00 0.00 37 1010.1
20260902015819 97 360 1.0 4.0 0.00 0.00 0.00 37 1010.1
20260902015719 97 360 2.0 4.0 0.00 0.00 0.00 37 1010.0
20260902015624 97 360 2.0 3.0 0.00 0.00 0.00 37 1010.2
20260902015534 97 360 1.0 3.0 0.00 0.00 0.00 37 1010.2
20260902015455 97 360 1.0 3.0 0.00 0.00 0.00 37 1010.2
20260902015341 97 360 1.0 3.0 0.00 0.00 0.00 37 1010.3
20260902015221 97 360 1.0 2.0 0.00 0.00 0.00 37 1010.3
20260902015122 97 360 0.0 3.0 0.00 0.00 0.00 37 1010.3
20260902015033 97 360 0.0 3.0 0.00 0.00 0.00 37 1010.3
20260902014954 97 360 0.0 3.0 0.00 0.00 0.00 37 1010.3
20260902014845 97 360 0.0 3.0 0.00 0.00 0.00 37 1010.2
20260902014724 98 360 0.0 3.0 0.00 0.00 0.00 37 1010.2
20260902014655 98 360 1.0 3.0 0.00 0.00 0.00 37 1010.2
20260902014516 98 360 1.0 3.0 0.00 0.00 0.00 37 1010.1
20260902014416 98 360 0.0 3.0 0.00 0.00 0.00 37 1010.2
20260902014346 98 360 1.0 3.0 0.00 0.00 0.00 37 1010.2
20260902014233 98 360 0.0 2.0 0.00 0.00 0.00 37 1010.2
20260902014135 98 360 0.0 1.0 0.00 0.00 0.00 37 1010.1
20260902014017 98 360 0.0 1.0 0.00 0.00 0.00 37 1010.1
20260902013927 98 360 0.0 1.0 0.00 0.00 0.00 37 1010.1
20260902013850 98 360 0.0 1.0 0.00 0.00 0.00 37 1010.2
20260902013738 98 360 0.0 1.0 0.00 0.00 0.00 37 1010.2
20260902013624 98 360 0.0 0.0 0.00 0.00 0.00 37 1010.2
20260902013525 98 360 0.0 0.0 0.00 0.00 0.00 37 1010.1
20260902013426 98 99 0.0 0.0 0.00 0.00 0.00 37 1010.2
20260902013337 98 98 0.0 0.0 0.00 0.00 0.00 37 1010.2
20260902013219 98 98 0.0 0.0 0.00 0.00 0.00 36 1010.2
20260902013120 98 99 0.0 0.0 0.00 0.00 0.00 36 1010.1
20260902013035 98 100 0.0 0.0 0.00 0.00 0.00 37 1010.1
20260902012917 98 99 0.0 1.0 0.00 0.00 0.00 37 1010.1
20260902012818 98 99 0.0 1.0 0.00 0.00 0.00 37 1010.1
20260902012722 98 98 0.0 2.0 0.00 0.00 0.00 37 1010.1
20260902012651 98 98 0.0 2.0 0.00 0.00 0.00 37 1010.0
20260902012539 98 98 0.0 2.0 0.00 0.00 0.00 37 1010.0
20260902012440 98 98 0.0 2.0 0.00 0.00 0.00 37 1009.9
20260902012323 98 98 0.0 2.0 0.00 0.00 0.00 37 1010.0
20260902012234 98 98 0.0 2.0 0.00 0.00 0.00 37 1010.0
20260902012135 98 98 0.0 2.0 0.00 0.00 0.00 37 1010.1
20260902012103 98 98 0.0 2.0 0.00 0.00 0.00 37 1010.0
20260902011924 98 98 1.0 2.0 0.00 0.00 0.00 38 1010.0
20260902011824 98 97 0.0 2.0 0.00 0.00 0.00 37 1010.2
20260902011735 98 97 0.0 2.0 0.00 0.00 0.00 37 1010.2
20260902011621 99 97 0.0 2.0 0.00 0.00 0.00 37 1010.0
20260902011523 98 97 0.0 2.0 0.00 0.00 0.00 38 1010.1
20260902011424 99 97 1.0 2.0 0.00 0.00 0.00 37 1010.1
20260902011334 99 97 1.0 2.0 0.00 0.00 0.00 37 1010.1
20260902011234 99 97 0.0 2.0 0.00 0.00 0.00 37 1010.0
20260902011203 99 97 0.0 2.0 0.00 0.00 0.00 37 1009.9
20260902011029 99 97 0.0 2.0 0.00 0.00 0.00 36 1009.9
20260902010930 99 97 0.0 2.0 0.00 0.00 0.00 36 1009.9
20260902010734 99 97 0.0 2.0 0.00 0.00 0.00 38 1009.9
20260902010642 99 97 0.0 1.0 0.00 0.00 0.00 37 1010.0
20260902010524 99 97 0.0 2.0 0.00 0.00 0.00 36 1010.0
20260902010425 99 97 0.0 2.0 0.00 0.00 0.00 37 1010.1
20260902010339 99 97 0.0 3.0 0.00 0.00 0.00 37 1010.1
20260902010220 99 97 0.0 3.0 0.00 0.00 0.00 37 1010.1
20260902010149 99 97 0.0 3.0 0.00 0.00 0.00 38 1010.1
20260902010041 99 97 0.0 3.0 0.00 0.00 0.00 38 1010.1
20260902005917 99 97 1.0 3.0 0.00 0.00 0.00 37 1010.2
20260902005846 99 97 1.0 3.0 0.00 0.00 0.00 37 1010.2
20260902005746 99 97 0.0 3.0 0.00 0.00 0.00 37 1010.2
20260902005636 99 97 1.0 3.0 0.00 0.00 0.00 37 1010.2
20260902005541 99 97 1.0 3.0 0.00 0.00 0.00 37 1010.2
20260902005422 99 98 1.0 2.0 0.00 0.00 0.00 36 1010.3
20260902005333 99 98 1.0 2.0 0.00 0.00 0.00 36 1010.3
20260902005234 99 98 1.0 2.0 0.00 0.00 0.00 36 1010.3
20260902005116 99 98 0.0 2.0 0.00 0.00 0.00 37 1010.2
20260902005018 100 98 0.0 2.0 0.00 0.00 0.00 36 1010.2
20260902004933 100 98 0.0 2.0 0.00 0.00 0.00 36 1010.2
20260902004833 100 98 0.0 2.0 0.00 0.00 0.00 35 1010.3
20260902004741 100 98 0.0 2.0 0.00 0.00 0.00 36 1010.3
20260902004623 100 98 1.0 2.0 0.00 0.00 0.00 36 1010.2
20260902004523 100 98 1.0 2.0 0.00 0.00 0.00 35 1010.4
20260902004426 100 98 0.0 2.0 0.00 0.00 0.00 36 1010.3
20260902004318 101 98 0.0 2.0 0.00 0.00 0.00 35 1010.3
20260902004228 101 98 0.0 5.0 0.00 0.00 0.00 35 1010.3
20260902004158 101 98 0.0 5.0 0.00 0.00 0.00 36 1010.3
20260902004019 101 98 0.0 5.0 0.00 0.00 0.00 36 1010.3
20260902003940 101 98 1.0 5.0 0.00 0.00 0.00 36 1010.3
20260902003829 101 98 1.0 5.0 0.00 0.00 0.00 36 1010.3
20260902003729 101 98 1.0 5.0 0.00 0.00 0.00 36 1010.4